GFSSE_500_rhum_000.txt.gz
RH
93 97 98 97 91 86 66 24 13 8 5 8 6 2 6 8 9 10 11 12 12 14 14 15 14 14 14 16 16 14 7 5 5 6 6 5 5 6 10 8 4 3 12
69 79 90 87 78 54 32 17 9 5 9 12 5 4 6 7 7 9 12 12 13 14 14 14 13 12 12 14 16 17 17 15 10 7 8 9 7 4 5 5 6 8 8
74 75 90 83 59 35 43 7 6 7 12 10 5 6 6 6 8 11 13 15 15 15 15 15 16 17 16 16 15 19 21 18 19 18 12 6 7 7 10 5 6 13 14
87 69 52 55 44 47 9 6 8 10 9 6 6 6 7 7 7 8 12 14 16 16 16 17 18 19 20 21 22 23 24 24 23 22 20 18 12 8 21 6 3 11 29
48 43 58 53 46 19 7 5 5 7 7 6 7 7 8 7 6 6 9 13 15 15 16 18 20 21 22 23 25 26 28 27 26 26 27 26 23 18 17 19 15 13 17
58 50 56 50 20 6 4 2 5 6 5 6 7 8 8 6 5 6 10 12 12 13 17 21 22 20 20 18 22 25 27 29 29 30 32 29 30 30 29 42 32 18 15
51 42 41 23 6 4 3 5 6 6 6 6 7 6 6 7 9 9 9 10 15 21 23 22 17 15 16 18 18 22 28 29 26 24 25 28 30 29 34 32 26 24 21
64 37 22 10 8 4 5 5 5 5 6 6 6 7 9 9 10 13 17 21 22 22 20 20 18 19 23 25 26 27 29 30 32 35 34 29 24 27 30 35 38 37 27
19 17 12 9 6 3 5 5 5 6 6 7 8 8 11 14 16 18 21 23 19 24 26 26 25 26 27 26 26 27 29 31 32 35 37 37 32 25 26 27 33 38 46
10 12 8 4 3 4 5 5 4 5 6 8 12 14 18 21 23 21 18 16 20 19 18 17 19 18 18 20 27 32 32 31 32 34 37 36 36 34 32 30 27 29 41
10 6 2 3 3 4 5 5 8 12 16 17 20 24 26 22 18 15 20 17 12 16 18 23 28 29 28 27 33 32 33 34 32 33 32 30 31 34 35 33 32 31 29
4 6 7 6 6 5 8 12 18 24 26 29 33 40 47 45 46 47 42 39 28 36 36 33 36 35 37 39 39 33 30 28 31 34 32 25 19 20 25 29 27 26 27
6 5 6 9 9 12 18 22 22 25 34 51 64 75 76 68 60 57 55 55 45 43 41 38 41 44 42 40 36 34 31 28 26 26 30 26 21 17 14 13 15 20 19
10 12 12 11 12 16 20 26 27 41 36 55 90 90 72 46 56 57 44 45 47 44 47 43 41 39 38 35 34 34 34 34 32 31 30 26 26 24 22 21 18 15 12
18 15 14 14 15 21 24 32 43 38 36 46 76 72 53 40 34 27 29 39 43 41 39 36 37 35 34 34 35 35 35 33 31 30 30 29 29 28 29 28 24 21 19
15 16 18 20 20 21 18 17 49 54 54 65 87 48 42 44 42 34 41 44 46 46 43 43 42 40 39 36 31 24 19 15 11 8 8 10 13 16 21 23 25 26 26
22 24 28 24 18 14 35 66 85 98 98 95 100 80 87 77 55 51 56 56 53 50 47 40 27 14 10 9 9 8 8 8 7 6 6 6 6 7 9 12 15 16 20
26 25 24 20 42 68 97 98 97 97 98 99 96 79 98 86 70 66 64 58 49 29 12 9 10 10 10 10 11 11 11 10 8 8 7 6 6 6 6 6 7 7 9
66 53 23 51 78 91 100 98 97 96 96 94 99 89 75 69 70 62 58 45 27 16 12 10 12 14 15 15 14 13 12 12 10 10 9 8 7 6 6 6 6 6 6
40 37 35 67 94 100 98 88 68 70 70 86 85 82 73 71 60 58 53 37 18 14 16 17 18 17 16 14 14 13 13 12 11 10 10 9 8 8 7 6 6 6 6
49 62 73 85 96 71 57 53 43 43 64 79 74 67 61 61 61 44 26 20 20 20 19 19 19 18 17 16 14 14 16 16 15 13 12 11 10 9 9 8 8 8 8
71 86 72 54 57 50 49 50 54 54 60 60 66 68 62 49 30 25 26 25 24 23 22 23 22 24 24 22 20 18 16 17 18 18 18 17 16 15 14 14 12 11 10
80 70 64 63 68 74 61 58 62 64 66 65 60 46 31 29 31 33 34 36 36 35 38 38 29 20 18 24 25 25 24 21 18 18 18 18 18 17 16 16 16 16 15
45 46 79 96 71 62 55 60 67 68 58 44 38 34 34 38 47 57 55 44 36 33 25 19 15 17 20 23 26 28 28 24 20 17 16 14 15 14 14 14 12 12 15
73 100 98 62 60 61 64 72 66 46 45 47 49 56 63 58 43 37 32 28 26 24 19 16 19 24 31 37 35 31 24 19 15 13 14 14 16 16 16 18 16 14 12
99 79 58 85 84 70 64 49 48 52 53 52 47 41 39 39 35 30 26 26 24 20 19 24 35 43 42 33 27 19 15 13 16 20 23 37 46 23 15 15 28 31 30

GFSSE_500_rhum_003.txt.gz
RH
89 87 70 96 93 84 70 48 33 16 5 4 3 4 7 8 8 11 13 13 13 13 13 14 15 16 16 16 17 18 19 16 13 9 7 8 8 7 5 5 9 7 4
94 84 64 65 80 95 66 42 35 8 5 8 4 6 8 8 10 14 15 15 15 14 13 14 14 15 16 18 19 19 20 22 20 19 17 17 13 8 15 22 7 4 8
97 79 82 82 83 81 55 45 12 8 8 8 4 7 8 8 11 13 14 15 15 15 15 14 15 15 16 17 18 20 22 22 22 22 22 22 22 21 14 19 33 9 6
91 85 92 78 82 69 54 20 9 8 8 6 6 7 7 8 9 9 8 10 13 15 14 13 15 17 15 15 17 20 20 22 24 24 24 24 24 27 28 33 45 18 8
91 86 96 89 81 69 30 17 10 5 7 7 7 8 8 8 8 7 7 8 11 12 11 13 16 15 13 10 10 12 14 17 21 24 27 26 26 27 32 40 35 44 35
90 93 96 73 83 46 21 13 3 6 7 6 7 7 8 8 8 8 9 8 8 10 14 14 12 13 12 11 15 16 13 16 24 26 26 25 24 24 29 33 38 45 32
89 82 96 83 69 29 24 5 6 7 6 6 6 6 7 8 8 8 8 11 14 16 14 12 12 14 15 16 18 20 22 22 22 25 26 28 30 29 24 24 29 31 35
92 88 86 70 40 19 6 6 8 8 7 6 6 6 7 7 7 11 14 17 16 9 11 12 18 18 18 19 20 21 20 21 24 25 25 27 29 31 30 24 24 28 31
49 52 48 28 17 11 6 6 8 8 8 7 7 7 7 8 12 17 19 15 13 15 16 14 15 14 14 15 15 17 20 29 30 30 29 29 30 29 30 27 27 30 35
23 20 22 15 7 5 6 9 9 8 7 8 10 11 12 15 17 16 19 28 38 36 35 13 17 24 20 12 13 19 25 31 27 28 32 31 30 29 27 28 26 26 29
18 17 12 6 8 10 11 9 10 12 12 13 14 16 18 17 22 44 54 51 46 46 38 24 29 30 29 26 28 27 29 32 30 26 24 27 31 31 23 25 27 25 24
14 10 12 13 12 11 14 14 19 15 18 18 21 22 23 34 57 68 57 50 53 46 41 42 39 34 36 36 38 39 38 34 32 31 26 24 25 28 22 12 12 19 21
10 10 11 13 14 14 15 18 22 22 22 20 22 26 24 52 74 73 53 34 47 28 32 39 41 40 40 38 38 35 34 34 33 33 34 31 28 24 22 21 18 14 10
10 11 12 11 10 15 20 22 19 18 18 20 23 40 64 87 85 66 48 38 28 26 38 43 42 38 35 36 34 32 33 35 35 33 31 30 29 28 27 25 23 22 19
24 19 16 17 21 18 24 25 25 19 23 67 76 79 68 66 55 58 66 50 33 37 41 49 52 44 40 36 36 34 30 25 17 12 11 11 11 10 10 15 20 22 22
15 18 22 20 23 27 28 15 23 34 43 81 96 97 98 98 98 92 76 60 62 57 50 44 43 42 37 23 13 11 11 11 10 10 9 9 8 7 7 7 8 11 15
24 24 25 29 33 17 45 56 84 99 98 89 97 98 98 99 98 79 88 81 72 62 50 44 33 11 5 7 8 9 10 12 12 11 10 10 9 9 8 7 6 6 6
15 15 17 24 40 53 86 89 99 99 98 98 98 95 94 90 96 100 89 75 60 54 51 44 19 7 7 10 14 15 15 15 14 14 13 12 11 10 9 9 8 8 7
35 38 47 70 68 78 89 98 97 92 68 47 46 47 51 83 96 81 65 57 53 46 30 22 17 17 17 18 18 18 17 16 15 15 14 14 13 12 11 10 9 8 8
52 50 44 72 83 91 86 64 42 42 48 54 45 51 63 64 62 64 60 50 28 20 22 25 24 22 22 21 20 18 16 15 13 12 11 11 11 10 10 9 9 9 8
54 57 82 89 78 58 42 49 64 64 60 52 52 64 71 71 66 51 31 25 28 30 30 28 27 25 23 22 21 19 16 15 16 18 16 14 13 12 11 10 10 9 8
66 62 36 42 36 41 64 71 63 55 52 48 56 60 50 38 34 32 33 35 35 36 36 33 30 28 24 20 19 19 18 19 18 20 18 18 18 19 17 15 12 10 9
76 82 70 51 43 62 66 68 51 52 50 47 38 32 33 40 43 43 46 47 48 44 36 32 33 27 24 23 20 20 18 17 18 19 21 18 16 18 19 18 21 22 19
99 58 60 84 71 74 61 42 43 49 45 39 45 52 55 57 57 54 51 49 41 37 38 38 31 26 25 23 19 16 18 19 18 14 16 16 20 21 17 15 15 16 16
39 71 60 63 69 46 66 69 71 54 53 56 63 64 62 54 49 49 49 43 42 42 41 36 30 26 22 22 24 28 26 22 20 20 15 12 12 14 15 17 21 23 23
85 49 29 28 30 42 64 84 69 50 45 48 50 51 52 56 54 48 44 46 49 47 40 31 26 25 26 33 30 18 15 14 12 13 16 20 23 36 44 38 44 60 65

GFSSE_500_rhum_006.txt.gz
RH
56 87 88 87 86 94 86 82 55 38 21 7 4 3 7 8 8 10 11 12 12 12 12 12 12 13 14 14 15 16 17 18 19 18 15 13 13 14 13 13 20 10 6
70 90 95 92 76 85 91 72 48 32 9 6 6 4 7 8 10 12 12 14 14 13 12 11 11 11 11 10 10 14 15 14 17 18 18 20 18 20 21 20 22 26 13
77 92 97 89 91 98 86 66 44 19 8 9 6 4 8 8 10 12 13 14 13 12 12 11 11 12 13 13 11 9 10 11 12 13 16 17 19 19 21 25 29 32 34
95 96 96 97 97 96 92 63 32 24 7 7 4 6 8 8 8 10 10 11 11 10 10 10 12 13 12 9 11 10 11 12 11 12 16 15 14 17 19 22 31 42 36
96 95 96 95 96 96 95 64 34 25 5 6 6 7 7 7 8 8 9 9 9 8 10 12 10 8 8 9 10 12 16 17 14 16 21 22 23 22 20 22 26 32 39
96 94 95 93 83 98 81 40 27 5 7 8 7 8 7 7 7 8 9 8 8 11 10 7 7 8 10 12 14 14 16 19 18 19 21 23 24 22 22 24 17 20 26
96 96 96 96 97 94 52 45 8 7 8 8 6 6 6 6 8 8 7 9 13 11 9 12 17 17 9 10 11 12 14 15 14 18 21 22 25 25 25 25 24 21 22
95 96 95 94 92 73 53 17 7 10 10 8 6 6 6 6 7 7 10 12 12 12 25 33 28 27 13 14 17 13 14 16 17 18 28 29 27 26 28 30 28 27 26
95 90 97 95 44 39 16 8 8 11 10 8 6 6 6 6 7 10 12 13 13 28 40 42 34 29 10 15 20 23 14 12 17 24 29 28 30 29 29 30 29 27 28
89 76 72 66 48 46 19 7 11 9 7 6 4 5 7 10 14 15 15 13 26 36 46 40 28 19 16 14 18 20 25 26 26 26 28 26 25 29 30 29 28 24 24
61 46 35 37 34 32 22 11 9 7 5 4 6 9 15 17 23 21 18 22 46 57 48 39 25 18 17 21 28 33 33 34 35 32 28 28 27 23 27 30 29 21 21
26 27 22 15 21 18 12 7 5 5 10 13 15 18 17 18 28 28 30 36 63 64 46 30 23 26 29 35 36 39 38 38 36 33 32 31 30 30 26 24 25 21 12
19 15 12 11 10 8 8 13 19 26 24 21 20 20 23 34 39 41 40 48 70 60 42 34 28 32 35 38 40 37 38 37 36 35 34 35 35 34 32 30 28 23 21
10 10 8 10 14 17 19 23 22 22 24 18 21 27 46 70 88 96 83 73 55 48 47 42 36 43 37 36 42 39 37 36 35 32 30 23 21 18 15 16 18 22 24
12 16 18 20 18 19 21 24 25 19 12 38 60 53 67 99 98 98 99 96 73 75 61 54 53 57 44 39 41 42 40 32 20 15 14 14 13 11 10 10 10 8 9
23 23 21 22 26 28 29 19 37 44 48 79 97 99 98 93 98 98 98 97 87 75 63 67 64 58 50 44 40 25 14 8 8 9 10 10 13 13 12 11 11 11 10
27 27 27 34 30 25 28 42 75 70 98 99 95 93 94 82 82 74 91 86 69 83 88 78 57 55 48 43 38 13 8 8 12 14 16 16 15 15 14 13 12 11 10
26 22 30 46 54 64 67 79 97 99 96 97 96 86 81 92 93 77 60 52 79 94 81 64 52 31 25 21 23 22 20 20 20 20 20 20 19 18 16 16 15 14 14
38 41 52 55 51 75 95 98 90 79 82 65 66 60 59 58 57 66 80 80 70 70 67 43 26 25 29 27 26 26 25 24 23 21 19 19 18 17 16 15 14 13 13
54 49 50 56 65 62 53 47 46 41 41 54 62 54 57 61 70 72 70 61 51 40 32 27 28 28 28 29 33 31 28 27 26 25 22 16 13 12 11 10 10 10 11
30 33 64 73 72 63 49 42 34 40 74 69 52 50 47 42 38 34 32 32 33 34 32 30 32 36 42 39 35 34 36 35 31 26 21 18 16 14 13 12 10 9 8
71 72 77 96 73 42 54 64 72 81 50 37 26 27 32 34 35 39 46 51 54 57 55 56 53 47 46 44 45 44 38 32 27 23 20 20 20 17 15 14 11 10 10
67 70 88 73 26 23 28 34 49 27 24 40 57 51 47 50 57 63 67 69 65 64 62 54 50 50 52 48 40 35 31 28 25 25 23 21 19 18 17 16 14 12 11
28 27 29 25 21 23 26 21 23 29 37 53 70 69 67 60 59 61 62 66 66 61 56 56 54 51 43 41 36 32 29 27 24 20 20 20 20 18 12 10 8 7 6
21 20 22 23 24 21 20 20 22 27 30 33 39 45 49 56 63 66 66 61 58 57 57 50 45 42 38 36 34 32 29 27 25 22 19 13 6 5 5 7 10 14 16
20 20 20 20 21 20 20 21 23 25 27 30 30 33 42 51 56 60 58 60 58 53 45 39 37 37 36 33 30 30 28 25 17 6 4 5 6 8 10 12 14 18 27

GFSSE_500_rhum_009.txt.gz
RH
60 57 51 60 74 75 85 88 75 67 48 27 9 4 4 8 8 10 11 12 12 12 11 10 9 9 8 7 6 6 6 6 7 10 12 8 9 9 13 16 17 18 21
88 51 61 80 79 95 82 75 73 64 46 19 7 5 5 8 8 12 12 14 14 12 9 9 8 9 8 5 5 6 6 6 6 7 8 11 16 16 16 18 16 18 22
91 62 76 84 95 92 88 81 73 62 42 14 8 6 5 8 9 11 12 13 11 10 9 9 9 8 7 7 7 7 7 8 9 8 9 8 12 14 16 19 19 18 27
92 87 90 96 95 93 91 83 80 70 40 8 8 5 5 8 8 9 10 10 10 9 8 9 8 6 6 5 6 8 9 11 13 14 13 14 12 15 17 20 21 21 26
95 88 96 97 90 98 88 92 87 62 42 7 6 4 6 8 7 8 8 9 8 8 9 9 6 6 12 11 5 8 10 12 15 16 16 15 16 18 18 18 21 24 21
94 99 97 95 94 96 88 94 82 58 24 5 6 6 7 7 7 7 8 8 7 9 9 8 14 28 26 20 12 6 7 8 11 12 14 15 15 15 21 21 20 22 26
98 96 97 95 96 96 96 90 87 35 7 8 7 7 7 6 6 7 8 8 8 9 9 13 24 36 32 24 14 10 13 18 12 10 11 13 13 18 20 21 24 24 24
96 95 93 96 97 97 84 96 53 17 10 8 7 6 5 5 7 7 7 7 9 10 10 12 25 42 37 24 12 14 14 18 21 16 10 12 12 16 20 19 22 25 27
96 96 95 96 95 92 95 65 12 7 8 8 6 5 5 6 6 6 7 8 10 10 11 19 34 39 33 18 14 12 12 16 17 23 25 20 18 21 22 20 23 25 28
96 95 96 98 97 90 56 19 7 6 7 6 5 5 4 4 6 9 11 11 13 12 14 26 54 45 27 20 17 13 14 14 20 25 27 30 30 28 25 22 21 26 28
96 95 92 94 93 88 94 23 8 6 6 8 10 13 17 16 13 13 19 25 17 15 19 30 51 42 25 20 23 23 21 24 26 28 35 34 32 31 30 27 23 22 25
40 61 39 35 34 28 20 14 12 13 16 20 19 17 16 19 21 35 55 60 72 53 32 35 27 35 40 28 21 29 36 37 34 34 35 35 34 32 32 32 31 27 24
19 19 16 9 11 11 13 15 19 21 18 19 15 13 26 41 49 62 77 81 89 91 72 61 48 44 42 39 33 42 40 44 41 38 36 35 34 33 32 29 25 26 27
10 10 10 10 11 16 16 16 17 20 20 23 23 30 63 83 83 86 98 99 96 96 90 80 75 64 54 52 47 58 51 49 45 43 41 35 27 22 20 17 16 12 11
10 12 14 16 18 20 23 27 27 22 41 44 52 66 98 95 88 97 100 89 96 91 91 79 69 63 64 62 57 61 57 50 43 34 22 14 11 13 13 14 14 12 12
25 28 25 26 28 27 28 28 42 53 76 100 98 94 94 86 74 78 73 78 70 69 82 81 57 79 88 82 76 60 53 48 43 25 12 11 11 12 15 16 17 16 15
30 32 36 36 32 34 50 63 64 68 100 98 97 95 83 94 92 79 57 54 74 71 57 62 65 82 76 84 63 51 34 24 22 24 23 20 18 14 13 16 19 19 19
36 40 46 54 55 56 62 83 97 93 82 68 59 62 62 59 55 54 64 85 72 65 67 67 68 63 65 62 51 31 26 25 25 25 24 23 21 21 20 18 17 17 17
56 63 70 67 58 59 77 73 55 46 39 42 49 46 42 42 43 41 41 44 44 42 38 38 39 38 35 32 28 26 27 25 27 27 27 26 23 19 18 17 16 16 16
64 62 50 50 77 80 71 62 40 43 46 45 38 39 33 39 44 42 40 38 36 32 31 33 36 42 45 42 41 42 45 45 43 41 39 37 35 34 32 28 24 22 18
50 52 52 70 70 71 74 36 23 21 17 19 26 28 25 24 24 26 28 33 40 51 53 54 55 62 64 65 59 55 54 54 53 48 42 37 34 31 28 27 25 22 20
75 74 77 69 69 54 35 23 20 20 21 22 23 22 23 26 28 36 48 59 59 62 65 65 64 67 69 62 55 46 39 38 38 34 31 28 27 23 22 19 19 17 17
68 52 38 27 32 26 24 23 21 20 20 19 18 18 19 26 32 33 36 43 53 61 64 65 65 60 52 46 46 41 35 31 26 26 24 21 21 20 17 15 15 14 14
36 25 21 21 21 23 20 20 20 21 23 23 23 22 23 24 26 27 32 42 52 61 64 60 55 49 50 46 37 39 33 23 17 14 15 15 16 18 18 17 15 14 14
24 19 19 20 21 21 22 22 25 31 33 32 31 30 30 29 30 32 34 47 54 60 56 52 54 56 43 36 38 26 20 18 15 14 13 14 12 6 3 3 3 4 5
19 20 24 25 25 26 27 29 33 36 37 36 39 41 39 39 40 33 42 52 57 56 58 59 55 49 46 42 22 19 17 15 14 10 4 2 3 6 6 7 8 9 9

GFSSE_500_rhum_015.txt.gz
RH
88 81 90 74 86 85 80 70 64 64 62 84 79 75 58 24 8 11 11 9 10 12 12 10 8 6 5 4 3 2 3 3 3 4 4 4 4 17 8 7 7 9 9
91 96 97 90 95 83 68 64 79 76 79 91 81 72 50 16 6 9 10 11 13 13 11 9 8 7 6 4 4 3 3 3 4 4 4 6 8 8 7 8 8 10 11
92 96 95 96 97 92 91 87 95 93 90 94 80 72 50 13 8 8 12 13 13 12 10 9 7 7 5 5 7 11 7 4 4 5 6 6 8 8 11 12 13 13 14
67 59 91 96 94 87 83 92 91 97 92 97 94 74 30 8 7 8 10 11 11 10 9 7 7 7 7 9 17 18 12 8 6 4 6 7 8 11 11 12 12 13 15
62 89 100 88 90 92 94 97 96 93 95 96 93 74 22 8 6 8 8 8 8 8 8 7 8 8 8 10 14 24 29 15 8 6 4 4 8 7 9 10 11 12 14
78 80 76 78 86 98 98 97 96 97 96 94 94 68 25 7 6 8 7 7 7 8 8 7 9 11 9 9 10 10 12 22 7 10 5 5 6 6 7 8 8 9 10
74 93 96 98 98 98 98 96 98 96 96 95 90 62 10 6 8 8 7 6 6 7 9 11 11 11 13 12 18 28 25 17 12 12 8 11 10 7 7 9 14 11 8
92 93 96 96 98 97 96 97 96 96 96 81 31 12 17 8 7 6 5 5 6 8 9 11 32 44 24 15 16 44 43 29 16 11 12 17 16 11 9 12 14 15 16
92 97 95 96 96 96 96 97 96 94 78 75 65 14 7 6 6 9 8 7 8 10 14 20 48 54 61 43 23 24 26 15 18 17 18 22 21 17 14 10 13 16 22
86 96 97 96 97 96 97 96 94 90 91 63 23 22 28 15 7 9 11 11 12 10 36 47 50 59 58 71 61 51 46 38 33 33 25 27 32 34 27 19 15 17 21
96 98 96 96 96 97 95 92 73 43 31 16 15 15 13 13 11 10 18 46 57 53 51 48 49 55 57 60 59 57 56 54 45 45 44 46 46 46 39 34 27 23 24
97 99 94 96 94 94 86 65 48 37 34 18 14 14 15 15 26 26 47 53 56 52 53 52 42 55 61 57 50 48 50 55 48 45 48 55 52 52 50 46 37 28 31
96 94 90 87 38 33 15 13 13 15 14 16 22 29 41 46 47 47 44 54 45 40 39 55 56 49 45 55 53 48 45 61 60 51 55 62 69 60 60 59 53 42 38
48 65 56 23 18 13 14 14 16 20 32 38 47 47 64 68 59 55 41 45 28 21 17 17 14 17 24 36 21 31 34 36 45 53 54 81 90 80 71 57 50 48 34
4 4 8 12 15 17 19 26 37 58 65 60 61 64 70 67 39 42 38 25 15 15 15 16 16 17 28 27 19 19 21 22 37 45 41 48 55 63 65 55 44 30 24
9 15 16 19 20 26 34 34 36 63 93 80 45 28 31 36 25 17 18 18 18 20 20 21 22 26 29 34 30 30 28 32 34 33 30 27 28 34 44 46 42 33 28
14 16 17 24 29 33 34 35 53 62 56 41 29 20 17 18 17 18 19 20 19 18 19 20 23 24 28 28 30 31 30 34 43 45 43 41 39 36 33 30 30 29 29
18 28 39 37 33 38 40 33 62 80 48 43 17 17 17 18 20 22 24 24 25 26 25 24 24 24 22 21 24 31 32 33 36 38 39 43 44 42 42 40 38 36 33
33 24 32 38 45 36 25 33 54 53 29 18 17 18 21 24 27 29 29 30 31 33 34 32 31 29 25 22 26 37 37 41 55 54 59 61 58 51 45 41 36 34 30
38 40 34 20 20 30 40 48 55 20 18 18 18 21 23 27 26 30 34 37 41 40 36 32 35 37 31 28 31 42 47 46 52 54 58 58 55 52 47 40 33 27 23
27 42 26 27 25 25 26 19 17 18 18 19 21 22 24 28 32 36 39 40 35 34 36 36 40 40 34 34 40 49 57 60 58 53 47 41 37 33 30 29 28 25 24
15 39 54 43 24 19 18 18 18 20 21 21 22 23 25 30 32 36 40 38 34 36 39 37 37 40 40 42 49 53 55 51 43 36 30 26 23 20 18 16 15 13 12
14 37 63 48 23 17 20 20 21 21 20 24 27 29 31 32 33 31 29 29 29 31 33 31 39 45 48 55 56 53 46 39 32 27 25 23 21 18 14 10 7 6 5
13 38 47 33 25 22 24 22 19 18 20 23 25 26 24 22 22 23 24 24 26 28 30 35 47 51 59 62 59 51 38 30 28 25 22 20 11 8 6 3 3 3 5
16 37 40 20 20 26 26 23 23 23 22 22 22 21 22 23 24 25 25 26 26 33 42 46 55 64 58 43 34 28 31 31 23 17 14 12 26 27 3 4 6 6 7
30 36 34 25 21 26 22 24 25 26 25 23 22 22 24 25 26 26 27 28 40 47 48 56 64 56 41 32 31 33 30 30 28 34 48 34 22 7 6 8 9 8 8

GFSSE_500_rhum_021.txt.gz
RH
58 48 48 74 72 72 76 97 86 90 94 85 89 86 83 88 83 82 45 22 14 10 9 8 7 6 6 6 5 4 3 3 2 2 3 3 3 4 3 4 8 5 3
52 44 41 53 60 68 97 98 96 88 97 94 97 84 92 97 87 80 57 18 12 10 10 9 8 8 7 6 6 5 5 8 8 6 4 4 4 4 3 3 4 4 6
64 53 44 45 38 64 54 92 96 92 96 98 96 96 91 96 92 78 51 14 13 11 11 12 11 9 7 7 6 6 7 9 13 16 13 6 5 5 5 5 5 6 6
58 56 48 56 75 56 62 75 96 92 97 97 98 98 92 98 96 76 31 13 16 13 13 12 9 8 7 7 7 7 6 6 8 13 18 15 6 5 5 4 5 6 6
51 54 50 50 60 55 50 90 96 100 100 92 95 98 96 97 85 46 27 19 30 12 10 9 8 8 7 7 8 7 8 7 7 7 10 14 11 7 4 7 7 7 6
55 58 55 48 51 78 70 85 98 97 97 95 95 97 97 92 84 79 44 23 20 11 9 10 7 8 10 8 26 20 18 16 9 9 10 13 14 9 8 18 18 13 9
65 46 56 61 78 99 86 98 97 96 97 80 88 97 96 97 90 57 30 21 10 9 13 7 27 33 9 10 27 30 38 36 37 14 13 18 21 13 9 13 19 18 17
78 94 100 73 97 96 99 98 97 95 92 96 97 97 94 88 58 31 29 18 16 12 18 36 15 13 19 29 31 34 35 40 42 44 18 18 19 18 16 16 18 23 23
96 96 96 95 99 94 98 85 96 98 97 96 97 91 58 43 20 21 26 28 14 36 40 20 23 35 34 30 26 33 35 31 40 43 42 37 36 30 29 36 34 40 43
87 87 85 96 96 98 88 97 97 97 96 98 95 64 54 49 33 22 16 24 32 35 16 22 35 36 19 16 17 18 37 37 32 43 44 44 43 44 41 43 42 43 40
78 97 97 96 96 96 96 97 94 96 95 93 91 68 47 44 44 52 44 35 23 24 36 30 20 10 10 10 11 10 10 10 13 19 20 17 16 27 31 40 40 36 38
94 87 84 97 96 97 96 97 97 96 96 97 90 86 80 60 41 32 29 38 35 40 23 11 11 11 11 12 13 12 11 11 12 12 12 13 13 13 14 16 24 25 31
92 94 93 100 96 95 94 86 82 78 67 53 39 28 25 31 39 54 57 32 16 12 13 15 15 15 17 16 16 15 16 16 16 16 16 16 15 14 16 17 20 22 23
95 92 85 85 82 86 80 75 68 61 44 34 29 41 58 56 47 27 19 14 16 19 18 17 17 17 15 14 13 12 12 12 13 13 14 16 20 18 15 18 22 28 29
69 77 68 53 41 48 51 49 37 43 58 71 64 52 36 26 18 17 15 17 18 18 17 18 17 16 15 12 11 10 9 12 15 19 20 19 19 19 18 17 18 22 28
16 18 20 20 20 25 31 38 42 66 75 76 61 41 23 16 16 18 19 17 18 17 18 18 18 17 16 13 12 11 10 12 14 17 18 20 22 22 21 21 21 23 24
21 19 22 28 32 33 34 31 43 60 69 60 34 26 16 17 19 20 17 15 15 18 18 20 20 19 20 20 19 17 14 15 18 21 22 25 28 29 29 30 31 32 32
15 21 33 36 29 19 17 16 19 40 55 34 18 18 17 19 20 17 17 18 19 19 19 21 21 22 23 22 23 21 21 23 28 30 32 36 37 43 43 42 39 37 36
25 27 31 17 15 20 24 23 28 67 39 17 17 18 19 20 19 18 18 18 18 20 20 21 22 23 25 25 25 27 29 35 38 42 47 50 55 51 43 37 32 29 26
34 28 35 34 36 29 27 23 41 17 17 18 18 20 21 19 18 17 17 18 20 21 21 22 25 27 29 30 33 38 42 43 48 53 58 55 44 32 26 22 20 18 24
9 18 32 45 46 32 22 22 19 20 20 20 20 20 19 18 18 18 20 21 21 21 23 27 29 30 34 43 49 48 48 51 56 63 62 56 42 32 30 34 48 65 55
12 16 34 61 42 27 20 20 21 22 23 23 23 22 19 17 18 20 21 21 22 26 31 32 34 52 52 52 52 52 53 54 64 70 65 62 61 67 74 70 71 70 64
12 20 27 62 56 43 25 24 25 27 29 26 23 20 17 19 21 21 21 26 32 35 37 54 69 64 57 64 62 58 55 54 60 71 72 76 86 89 84 69 45 40 38
18 30 52 59 66 68 42 25 25 29 74 29 24 19 20 21 21 25 31 33 36 43 68 62 54 47 49 61 57 54 58 56 58 62 73 76 82 83 91 86 58 46 38
21 38 36 45 63 58 49 47 26 40 65 33 22 27 26 24 28 27 25 31 50 54 48 44 75 65 68 69 60 60 64 70 75 70 63 74 67 77 77 84 96 85 62
38 33 56 63 61 65 43 40 36 43 45 62 53 59 52 34 23 25 37 50 72 100 80 61 63 64 63 61 63 68 75 81 85 99 85 86 92 97 99 96 100 97 72

GFSSE_500_rhum_024.txt.gz
RH
73 71 72 57 53 63 71 72 59 80 79 74 87 92 88 86 84 81 80 67 42 15 12 10 9 8 8 7 6 5 4 4 3 3 3 3 3 3 3 3 3 4 4
82 66 56 60 57 48 46 42 72 71 91 100 72 91 92 88 85 90 82 68 35 15 12 11 12 11 10 8 6 4 4 3 3 3 3 4 4 5 4 4 3 3 3
88 59 58 50 58 51 59 67 62 55 94 97 90 80 92 85 82 86 85 73 30 15 13 12 13 12 9 7 6 6 6 6 5 4 6 10 9 9 4 4 5 4 4
82 77 64 66 68 64 52 55 43 40 68 100 90 89 93 90 83 86 86 72 36 15 12 13 12 10 8 8 7 8 15 13 6 6 5 6 9 14 11 6 4 4 5
72 67 66 64 73 65 60 43 47 35 81 98 99 98 97 90 92 93 80 58 24 11 28 19 12 9 7 11 16 12 19 28 21 15 11 8 7 7 11 9 5 10 10
64 60 68 80 82 79 65 57 63 55 100 97 100 97 91 96 100 94 61 63 21 39 26 16 14 30 25 31 23 8 14 19 29 33 32 29 12 16 14 14 7 13 18
61 70 80 85 95 87 67 72 99 97 97 97 97 94 96 100 97 89 87 59 44 29 20 15 20 23 34 24 9 19 24 24 25 25 27 29 31 17 19 21 13 11 15
75 72 62 98 94 98 100 90 90 96 94 96 96 96 97 97 98 92 56 28 18 10 12 11 33 30 25 12 22 23 19 17 27 36 33 37 36 34 22 16 16 17 18
59 64 74 95 96 97 95 97 88 96 94 96 96 96 97 95 85 49 67 17 13 15 28 34 42 24 20 27 24 13 10 8 10 13 14 18 34 38 38 38 41 37 33
54 59 88 96 96 96 98 95 98 96 96 97 96 96 92 84 70 34 16 17 24 36 37 26 26 30 21 10 9 8 8 8 8 7 8 9 16 15 13 12 15 28 38
59 52 52 90 97 98 97 97 95 97 98 98 96 96 94 53 35 49 46 55 49 35 34 43 31 10 11 12 12 13 13 12 12 11 10 10 10 10 12 11 13 13 12
62 49 68 96 96 96 97 97 96 97 98 98 95 95 84 81 85 67 47 46 41 33 19 13 14 15 14 14 14 14 13 12 11 11 12 12 11 12 14 16 14 15 16
97 95 97 97 96 95 97 96 97 97 97 95 92 93 86 67 49 47 53 47 30 14 15 16 15 16 17 16 16 14 12 10 10 10 11 13 14 14 16 20 18 18 20
96 98 84 84 73 76 90 96 94 93 86 73 50 42 58 54 56 49 21 15 16 18 19 17 16 16 15 15 15 15 12 10 8 8 8 8 11 14 16 18 18 18 19
94 92 84 54 49 49 52 45 52 48 42 41 39 54 40 32 19 17 16 19 19 19 17 15 14 14 14 14 13 12 10 10 11 12 11 10 12 13 14 15 18 20 22
28 31 33 28 38 43 39 37 36 63 71 74 67 57 35 16 16 17 19 18 17 18 16 14 15 15 15 13 11 11 12 14 14 17 18 17 18 19 20 19 21 24 26
19 20 21 23 28 34 41 39 46 53 75 56 46 31 18 17 18 20 20 18 17 16 15 16 17 17 17 15 15 15 16 17 19 21 23 23 23 26 28 30 27 25 24
23 30 35 38 40 37 34 24 29 34 57 57 25 16 17 18 19 18 16 14 15 17 17 18 19 17 18 19 20 21 21 21 23 22 24 28 34 39 36 33 30 29 27
42 39 29 23 22 22 23 20 32 35 49 27 17 17 18 18 17 16 16 15 17 18 19 19 18 21 25 27 28 34 32 26 26 32 38 43 45 41 38 37 38 35 32
41 47 36 33 33 26 20 16 35 21 16 18 18 18 18 17 19 18 16 17 19 20 20 22 29 31 34 45 48 40 32 36 42 47 49 49 47 48 48 47 44 41 37
12 21 36 46 39 32 22 20 29 24 30 19 18 18 18 18 18 17 17 19 20 20 28 34 34 41 61 60 54 46 42 51 56 56 59 60 51 48 53 62 66 65 66
16 24 33 40 41 34 22 18 22 21 21 20 20 19 18 19 18 18 20 21 26 32 36 39 47 64 75 64 90 86 63 62 61 59 57 54 54 60 67 72 73 77 88
14 20 22 49 46 48 27 19 22 25 23 21 25 34 22 20 20 27 31 34 35 41 47 51 58 94 98 74 53 57 63 64 64 63 63 64 69 77 89 93 97 92 88
14 14 36 56 50 63 42 22 22 21 21 25 40 60 49 52 53 55 60 58 62 55 63 100 91 86 91 66 51 56 62 60 51 47 60 71 75 77 77 81 82 78 70
59 25 30 46 39 50 60 50 43 36 38 35 48 55 62 77 76 71 80 83 75 81 69 72 99 100 94 71 53 59 61 62 66 66 65 74 79 88 95 99 91 74 58
87 62 39 62 75 61 76 91 50 29 31 41 55 71 77 89 96 88 83 86 86 87 87 80 44 51 49 55 60 61 63 63 69 79 84 90 89 87 92 100 88 69 56

GFSSE_500_rhum_030.txt.gz
RH
79 72 76 70 64 66 67 57 55 54 50 47 51 54 63 61 57 67 81 76 75 64 53 42 22 13 10 8 9 8 6 6 11 12 8 6 5 3 5 6 5 4 4
77 72 83 76 70 67 66 57 50 45 41 40 37 48 73 78 62 78 78 83 79 69 54 43 22 15 11 11 10 8 8 18 21 14 17 17 10 7 5 6 9 10 5
82 74 84 69 71 68 64 55 43 39 35 30 37 44 77 77 58 83 84 89 82 76 64 50 26 19 13 13 9 12 25 29 18 9 9 14 17 15 8 5 5 7 9
88 80 94 76 70 69 67 56 47 41 37 34 40 42 44 52 91 87 87 93 82 79 71 50 31 18 13 13 12 17 21 26 14 12 17 14 14 20 24 22 12 8 7
87 78 94 84 80 72 66 61 51 48 41 37 42 48 46 68 96 78 90 92 88 84 64 55 30 14 23 16 25 20 27 25 15 19 16 17 18 18 18 20 22 24 16
89 75 72 68 70 73 75 60 55 62 61 56 50 56 52 89 97 84 94 84 85 82 57 40 21 17 23 16 20 25 26 24 25 19 18 14 12 19 23 25 28 28 24
77 68 72 62 66 71 64 67 76 69 80 65 60 84 72 91 95 96 95 89 83 70 63 41 32 28 15 24 31 30 25 23 18 10 8 8 8 7 7 8 12 24 33
66 70 76 74 78 76 72 70 71 89 82 85 83 99 98 98 97 95 88 87 80 86 69 43 23 17 37 34 34 33 15 8 9 8 9 10 10 10 10 10 10 9 9
79 91 89 86 80 82 62 62 72 97 86 83 97 100 98 95 98 97 90 92 74 43 18 12 30 33 39 37 32 12 9 8 8 9 10 10 10 9 9 8 9 9 10
73 91 83 79 85 96 86 97 98 95 96 95 96 97 88 97 97 100 86 72 33 15 30 35 34 33 37 22 11 10 10 11 12 13 13 13 12 12 10 8 6 6 6
91 78 82 88 100 79 78 95 96 96 95 96 96 95 96 96 96 90 53 23 21 47 43 46 39 28 13 12 10 10 10 10 11 11 11 11 10 9 8 7 7 6 6
81 73 73 74 95 96 95 97 83 96 96 99 97 96 95 95 95 52 33 47 50 48 51 42 17 14 11 10 10 10 12 12 12 11 9 8 7 8 8 8 8 6 7
76 67 70 60 71 91 88 91 96 97 95 96 97 97 96 94 85 68 60 54 54 53 51 25 15 10 10 10 12 13 13 11 10 9 8 6 6 6 6 7 8 8 9
77 74 69 86 63 72 95 97 98 97 96 97 97 96 95 90 76 71 64 59 61 42 20 14 11 11 12 12 11 12 12 10 8 7 6 6 8 11 11 9 9 10 11
70 71 74 83 74 96 95 97 98 97 98 96 97 84 81 83 75 63 61 60 22 18 13 12 12 12 10 10 11 12 10 9 7 6 7 12 13 12 11 14 15 18 19
98 98 96 96 96 91 93 98 96 97 83 63 53 55 62 62 51 29 28 19 20 15 13 13 12 11 11 10 10 10 9 10 12 14 16 15 14 18 20 21 21 22 23
95 90 72 65 54 56 51 50 42 36 37 38 46 57 50 40 31 19 18 19 16 14 13 13 13 12 11 10 11 11 12 15 17 18 17 18 22 24 23 23 24 24 22
28 27 26 24 27 42 57 30 32 54 50 46 64 60 60 56 19 17 17 17 16 14 14 14 12 12 15 23 26 17 16 19 21 25 30 29 26 24 26 29 29 27 24
22 21 24 24 27 36 31 30 34 39 64 78 71 69 64 32 18 17 16 17 16 14 13 12 12 21 31 35 32 17 21 25 30 32 35 42 47 39 33 34 30 25 23
32 34 31 29 27 26 23 20 29 52 61 74 79 66 30 18 17 18 19 18 16 14 14 23 38 49 44 33 25 22 30 37 39 37 33 28 30 34 39 41 34 28 28
32 28 23 20 22 23 26 27 29 39 36 54 65 35 21 18 18 19 18 18 19 29 43 52 61 63 57 47 29 44 55 71 68 48 38 32 33 39 43 39 31 30 24
39 41 38 36 39 40 33 25 22 32 38 37 36 40 25 24 21 21 26 54 55 60 60 66 61 57 49 44 51 54 86 67 71 66 41 34 40 44 36 29 30 32 38
22 29 36 44 51 50 46 34 25 39 42 39 67 50 58 27 26 39 49 55 66 70 69 61 36 39 44 52 62 76 86 86 59 30 32 42 49 41 32 37 39 30 26
17 18 21 25 33 38 48 56 53 26 30 43 84 90 43 32 32 44 52 61 76 76 69 58 65 74 82 60 76 89 83 90 84 46 44 49 52 48 39 56 60 44 28
28 30 31 33 30 39 61 57 49 68 50 37 42 80 55 45 49 53 57 69 82 80 76 73 85 72 87 83 97 91 68 79 63 58 63 58 44 44 49 62 61 51 22
21 25 28 43 75 67 49 57 70 89 84 73 61 78 54 65 80 83 87 85 82 79 85 94 90 88 84 85 100 81 74 70 55 61 52 57 65 69 68 70 55 20 10

GFSSE_500_rhum_033.txt.gz
RH
74 85 84 74 73 71 64 57 56 56 53 53 51 50 54 63 67 58 53 63 64 67 63 52 42 30 19 12 10 9 7 7 15 18 13 14 16 14 10 7 5 7 10
89 84 82 82 82 76 68 62 56 55 52 51 46 45 41 63 73 64 61 72 75 69 68 58 48 32 16 12 11 10 8 19 26 19 11 13 13 13 17 13 6 5 7
88 91 90 87 81 80 73 66 63 59 49 41 37 37 37 63 70 64 58 69 76 78 73 66 53 40 18 14 13 10 12 17 16 20 11 16 14 13 13 18 23 22 12
96 91 96 97 94 79 72 66 62 62 48 40 40 37 38 38 46 48 67 75 81 79 72 75 60 36 20 15 16 15 18 16 24 18 18 16 15 16 17 17 19 22 24
97 92 96 96 95 78 70 72 68 66 56 44 44 45 42 42 44 54 71 74 85 79 78 79 58 40 18 19 21 22 20 26 24 22 22 20 18 14 14 17 19 20 23
67 96 93 97 96 85 70 68 79 79 56 54 76 60 44 42 50 57 84 80 87 79 81 80 54 31 18 24 13 19 26 30 23 20 17 12 10 8 6 6 6 6 9
93 84 92 78 75 65 70 73 71 68 59 77 75 66 54 64 59 65 83 92 90 91 80 63 61 28 28 14 32 35 33 32 15 9 6 6 7 8 8 9 9 8 8
88 91 76 78 84 74 65 66 66 69 96 90 87 79 76 89 78 81 96 95 92 81 76 76 51 31 13 36 36 36 31 21 9 6 6 7 8 10 11 11 10 8 7
96 75 72 72 92 87 78 70 63 73 80 84 95 96 97 99 86 86 99 90 87 82 67 28 14 19 37 36 40 30 16 8 7 7 8 9 10 11 11 11 10 8 7
91 96 96 94 94 93 80 75 74 72 72 84 96 96 96 97 87 98 98 94 85 54 18 19 33 36 32 36 29 10 8 8 8 8 9 9 9 8 7 6 5 5 5
93 84 86 96 94 96 96 95 93 76 95 95 94 96 96 95 96 96 96 92 48 23 32 42 43 40 34 19 11 9 9 8 8 9 9 7 6 6 6 7 7 7 7
85 87 94 94 84 96 93 97 96 98 97 96 97 95 96 96 96 96 96 68 24 40 47 42 42 29 15 12 10 9 8 8 9 8 7 7 7 7 7 7 10 12 12
95 88 83 94 75 96 66 78 96 93 96 95 97 96 96 97 97 95 93 34 50 50 49 43 45 22 11 11 10 9 10 10 9 8 8 10 11 12 12 13 15 14 13
62 68 81 99 86 73 97 98 95 95 95 96 96 98 98 98 96 96 92 67 56 58 54 44 19 12 11 10 9 10 9 8 8 12 14 14 15 14 16 16 16 18 19
76 74 84 84 83 73 74 89 96 97 97 99 98 97 98 97 92 78 72 65 62 60 28 17 14 13 11 10 10 10 8 10 12 13 16 18 19 19 19 18 20 20 20
80 73 91 95 91 98 97 97 97 96 95 97 98 98 96 84 68 72 64 61 52 20 19 15 14 12 11 11 10 12 16 19 12 12 17 22 24 24 23 23 22 20 20
83 91 100 97 97 97 96 95 96 89 96 97 88 63 62 70 60 49 29 27 20 19 15 14 12 11 10 10 14 25 21 13 11 18 22 22 27 29 27 24 23 22 22
95 95 94 87 75 54 57 50 51 42 39 41 68 68 61 46 42 26 20 20 19 16 15 13 12 12 11 25 35 28 21 17 18 26 29 36 39 28 28 27 24 24 30
44 31 27 32 46 58 46 22 28 39 50 61 69 76 67 68 48 20 20 19 18 16 13 13 12 14 29 38 36 24 16 20 25 28 41 51 59 47 28 24 26 30 36
31 25 24 36 52 58 47 25 24 46 62 72 82 84 71 61 34 19 19 18 17 15 16 15 24 42 42 36 16 16 22 29 32 36 36 40 39 44 33 31 35 37 38
29 27 19 21 18 28 52 20 20 28 50 78 93 90 73 31 20 18 18 17 17 18 22 47 47 45 45 22 39 46 41 50 49 72 62 42 33 34 33 41 45 42 34
31 33 29 26 25 24 27 26 23 22 27 38 68 80 51 29 21 20 20 20 27 37 56 50 49 59 54 48 65 69 67 38 29 38 82 58 40 35 36 42 35 38 46
30 20 19 22 26 29 32 36 34 26 28 40 34 48 50 40 34 23 27 29 37 40 48 61 80 79 62 65 67 80 68 51 47 35 43 60 37 40 48 51 43 40 46
12 13 13 12 12 16 22 30 42 52 40 32 44 44 66 77 70 31 26 33 52 61 65 85 85 76 63 59 68 65 74 76 75 94 74 39 36 45 45 46 54 56 50
14 14 16 18 18 18 22 27 42 48 47 55 34 22 30 55 75 55 49 67 80 79 84 93 84 78 74 83 86 76 56 98 100 98 67 82 56 46 41 40 43 52 56
18 19 21 20 21 26 48 68 46 51 64 73 81 75 73 73 83 91 81 94 98 96 95 95 97 91 100 100 93 81 96 84 76 94 50 75 74 67 57 61 66 66 53

GFSSE_500_rhum_036.txt.gz
RH
82 58 64 60 58 52 49 56 59 56 52 51 52 52 54 54 59 58 56 52 51 51 61 61 54 45 36 27 19 15 13 12 10 14 15 13 13 13 12 12 12 8 5
97 70 73 79 83 69 70 69 64 59 59 58 58 55 48 48 45 56 63 54 52 58 65 66 62 50 36 30 18 14 14 11 14 17 17 13 14 14 13 13 14 19 20
86 83 64 64 75 87 81 76 67 66 68 64 58 51 44 36 36 53 66 60 55 70 75 68 67 55 42 27 22 16 16 14 12 15 20 16 16 14 14 15 14 14 16
87 96 96 90 84 92 88 79 72 74 73 69 60 41 34 32 33 34 42 56 63 80 80 71 72 69 52 36 28 18 19 20 17 24 20 19 19 18 16 14 13 14 14
93 100 97 96 92 83 81 86 83 80 78 74 62 40 34 38 35 37 37 43 71 81 85 76 83 66 51 39 23 26 23 21 22 24 20 17 13 10 9 7 5 5 5
96 77 95 96 91 96 95 99 90 86 84 79 64 47 63 62 45 41 46 53 84 84 93 88 82 69 58 41 27 16 20 26 29 21 12 7 6 5 5 6 6 7 7
97 97 89 82 88 98 98 98 99 95 88 77 70 58 84 72 56 55 54 60 93 99 94 92 74 66 60 37 20 28 31 30 22 12 6 5 5 6 6 8 9 10 9
91 96 93 92 96 92 95 93 84 72 69 71 73 95 88 86 65 73 73 92 92 90 91 79 70 68 40 17 33 36 35 28 14 6 6 6 7 8 8 8 8 8 7
87 97 93 96 88 91 89 88 90 84 75 62 90 83 92 84 82 87 85 97 96 95 87 78 59 32 18 36 36 37 27 10 6 6 7 7 8 7 6 7 8 8 9
90 95 91 97 90 95 92 82 72 70 63 68 94 80 82 96 96 92 91 94 93 91 86 44 13 23 37 32 31 25 10 7 7 7 8 8 7 9 9 9 9 9 9
96 94 95 95 95 97 83 80 89 86 90 73 88 84 91 96 93 94 95 97 96 95 66 20 38 40 35 30 21 10 8 7 7 7 7 9 11 12 11 10 12 12 13
95 97 96 96 96 95 95 95 94 96 95 91 87 96 96 96 96 96 96 96 96 95 41 47 43 34 23 17 11 8 8 7 7 7 10 13 13 11 11 11 12 12 12
66 77 93 96 86 89 89 88 96 78 91 96 95 95 96 97 96 96 97 96 95 70 55 45 34 32 24 11 10 8 7 7 10 12 11 10 9 9 10 10 12 12 13
65 64 82 62 69 84 93 89 78 78 97 95 94 92 96 97 95 97 97 96 94 80 55 42 34 26 12 11 9 8 8 11 19 11 7 8 8 9 8 8 13 18 17
60 55 49 62 75 73 76 99 70 83 96 76 74 99 97 94 98 98 97 95 83 71 57 38 25 14 11 10 10 9 12 20 9 8 8 7 7 8 10 11 12 17 17
64 51 46 70 66 76 93 69 77 97 95 96 97 97 96 97 98 97 92 78 68 55 38 21 16 13 12 12 11 16 29 19 8 7 11 10 11 12 11 12 12 13 16
59 55 61 65 71 97 93 98 97 97 96 97 96 95 96 97 95 94 76 66 58 37 21 18 15 13 13 13 13 29 22 11 11 11 6 10 12 15 16 18 20 20 20
60 72 75 88 98 97 97 95 91 95 94 88 93 97 92 73 73 52 29 26 25 20 20 17 15 14 13 14 32 36 19 11 11 12 18 10 12 18 25 32 30 27 27
75 66 73 75 88 64 66 46 50 63 45 60 58 54 55 55 50 33 21 18 20 21 18 17 15 14 12 34 39 32 18 19 21 31 31 21 27 16 17 38 48 33 32
43 34 30 40 45 44 33 20 29 35 49 58 68 77 84 69 61 31 18 19 21 19 18 16 15 14 32 47 39 44 40 40 41 50 45 34 37 45 36 35 35 34 37
30 26 22 21 21 35 52 28 14 20 29 41 72 82 82 91 56 25 20 19 19 18 17 15 18 30 40 47 39 50 53 53 60 55 56 42 37 52 78 77 70 40 40
23 20 24 26 23 21 24 22 22 19 18 16 21 48 83 97 42 19 20 21 20 19 19 30 35 37 44 60 56 64 58 50 41 42 37 29 58 73 74 51 64 52 58
16 15 11 10 11 10 11 11 12 17 20 21 29 30 63 93 42 25 22 23 18 18 22 28 46 56 73 78 76 74 69 75 69 36 36 32 45 83 84 65 44 53 57
10 9 9 9 11 12 14 14 16 21 28 35 40 28 37 36 52 54 56 54 35 26 30 44 71 85 92 79 89 89 93 96 89 85 71 55 60 80 77 35 56 70 68
15 14 15 15 15 16 15 14 28 43 31 32 35 44 48 29 24 43 31 67 72 68 52 54 97 99 98 94 98 94 100 100 100 100 98 96 84 82 46 35 57 64 62
47 24 18 19 28 28 44 32 35 41 46 39 56 66 66 73 89 96 96 91 99 99 98 98 99 94 99 87 85 97 100 99 97 92 79 90 92 54 50 59 65 63 67

GFSSE_500_rhum_039.txt.gz
RH
92 93 75 90 99 90 86 59 46 44 46 44 46 42 40 44 47 49 50 54 53 50 46 46 48 49 47 41 34 30 24 20 23 14 15 15 16 15 14 16 13 12 11
95 96 82 92 95 97 70 53 46 48 52 56 56 53 52 53 50 51 54 57 57 53 54 56 58 58 56 47 39 33 25 24 20 13 14 18 16 14 14 14 14 14 12
55 97 96 96 89 70 62 80 76 78 74 69 65 63 63 59 50 45 44 55 63 57 63 76 70 66 60 53 43 40 25 19 20 15 19 20 18 18 17 15 14 13 13
53 84 96 87 89 98 100 96 85 86 81 72 70 73 64 52 39 33 34 53 71 65 68 81 73 67 69 59 48 40 22 18 20 20 21 20 17 12 10 9 8 6 5
54 92 94 94 96 97 92 84 90 88 78 76 85 80 68 46 35 34 34 40 43 54 78 83 75 73 69 60 55 32 26 19 24 25 21 16 8 6 4 4 4 4 4
78 91 99 100 95 88 99 87 88 89 85 81 86 82 65 49 46 57 50 42 42 62 76 82 92 82 76 64 49 24 25 27 28 24 14 6 4 4 6 6 8 8 8
94 97 96 95 97 84 84 77 93 88 80 92 85 86 77 63 68 79 65 48 46 64 91 94 90 85 64 61 34 23 32 30 25 13 6 5 6 6 7 8 7 7 7
51 65 95 96 91 90 88 95 93 98 98 89 84 74 71 69 88 89 73 58 63 84 96 92 92 71 63 55 26 33 31 24 10 6 6 6 7 8 7 7 8 8 8
34 43 88 97 94 95 96 96 96 95 80 65 59 55 58 67 88 98 91 87 94 96 86 88 80 74 55 23 30 36 22 10 7 6 7 8 7 8 9 9 8 8 8
92 75 83 96 95 94 96 95 82 76 57 60 69 74 78 93 94 83 98 95 95 96 93 87 72 35 20 36 29 22 15 8 7 7 7 8 9 9 9 8 7 7 7
87 94 96 96 96 95 81 95 99 71 71 58 72 92 87 83 79 88 95 96 95 95 92 81 28 24 38 32 25 14 8 7 7 7 8 10 9 7 7 6 5 6 6
93 96 94 96 98 96 96 96 98 98 92 100 89 94 85 89 95 99 96 96 96 96 96 94 56 41 31 22 15 10 9 8 7 8 9 7 7 7 6 6 5 5 4
87 95 87 79 93 93 95 93 96 94 95 92 92 97 96 96 98 93 96 93 96 96 96 86 42 27 24 17 11 10 9 7 8 10 7 7 6 5 5 6 6 5 4
72 55 57 60 74 55 62 77 76 95 82 79 87 98 94 93 92 93 96 97 98 100 97 86 41 27 27 14 11 10 9 9 11 9 8 6 5 5 5 6 7 7 7
48 51 45 59 49 57 66 69 66 99 73 63 65 94 84 90 84 98 94 98 100 96 95 61 26 28 18 12 11 9 9 23 15 8 7 6 6 6 6 7 8 8 8
52 46 44 47 45 63 56 64 74 97 73 69 83 98 80 90 94 100 96 99 98 95 73 45 30 21 14 12 11 10 20 29 17 9 7 8 7 6 7 7 8 9 11
47 52 44 49 45 50 63 72 81 95 90 86 97 95 88 98 99 98 100 98 90 74 45 27 22 16 13 12 12 27 44 34 14 11 14 12 11 11 10 9 8 7 8
57 48 44 56 55 53 64 81 86 90 100 98 98 98 94 96 98 97 90 80 66 47 25 22 19 15 14 14 13 45 46 44 21 14 13 15 21 25 20 11 10 11 14
58 63 64 62 77 84 92 91 86 61 56 73 81 87 93 91 85 58 41 33 34 26 21 19 16 15 14 14 17 45 40 45 44 55 30 18 27 25 19 18 21 30 44
35 36 42 58 48 28 29 31 35 37 46 50 56 62 54 52 54 50 24 21 20 19 18 17 16 15 14 18 26 37 43 45 50 53 61 48 40 33 31 43 36 46 63
34 22 23 25 28 56 25 12 11 12 23 48 67 80 85 77 69 86 30 26 20 19 19 18 17 17 18 31 33 52 73 75 68 57 51 62 64 65 60 56 54 60 84
15 16 19 19 19 21 24 15 15 17 15 13 13 32 74 89 98 74 62 21 24 19 18 17 16 17 23 35 54 80 72 72 71 61 58 60 64 71 79 90 83 98 95
12 11 9 8 8 9 10 10 11 11 11 12 14 22 47 64 96 64 62 25 18 16 18 23 25 26 35 42 69 85 74 70 63 56 84 66 65 76 80 90 95 89 82
9 9 10 11 14 13 12 12 12 20 21 24 23 29 40 36 32 52 75 68 85 83 81 75 66 66 67 67 79 99 97 80 62 71 73 82 59 78 100 96 97 98 43
12 12 12 13 16 20 23 18 12 14 28 36 32 26 29 48 40 30 70 51 90 85 88 87 91 97 90 95 98 63 94 89 58 64 69 74 78 94 96 96 75 33 52
44 35 20 22 35 24 14 17 22 23 42 47 34 37 40 48 69 95 85 96 94 86 87 94 96 98 95 80 78 88 88 69 61 60 94 69 93 98 88 39 36 50 66

GFSSE_500_rhum_042.txt.gz
RH
75 80 78 87 89 96 99 96 90 94 88 59 42 35 36 40 40 40 42 45 49 50 52 49 47 45 48 49 43 36 34 28 24 28 18 17 19 19 15 15 15 15 14
81 71 72 68 79 72 84 98 92 91 61 43 35 34 39 42 48 54 54 55 58 59 55 52 50 51 56 55 46 39 37 30 27 25 16 17 20 18 18 16 15 14 14
85 88 87 96 98 97 84 95 75 59 80 80 64 55 62 58 63 60 57 51 50 54 56 57 56 67 59 61 51 48 39 33 25 23 21 21 19 18 16 15 14 12 10
70 76 78 94 96 99 86 80 79 90 97 90 71 68 64 66 66 60 47 43 46 58 74 68 67 74 64 64 56 47 42 35 25 27 22 20 18 10 7 4 4 3 3
76 68 57 84 96 99 91 77 78 94 98 88 69 71 74 74 71 57 40 36 44 63 74 68 70 71 75 73 61 49 41 33 26 24 23 18 8 5 4 4 4 5 6
68 66 62 66 79 98 88 79 89 91 92 87 73 82 89 87 74 64 46 44 48 42 47 53 67 78 90 79 67 44 35 24 27 27 17 6 5 5 5 6 7 7 7
38 84 65 87 96 65 89 96 94 78 84 76 71 91 91 86 76 60 53 66 69 64 51 64 76 83 93 80 63 46 27 30 28 17 7 5 6 6 7 7 8 8 8
50 67 75 82 96 88 97 77 96 84 76 72 74 86 90 86 76 71 61 73 79 60 56 72 83 83 93 67 59 34 33 29 14 7 6 6 7 8 8 9 8 8 7
68 45 65 56 94 96 98 88 82 85 97 74 78 80 87 77 71 75 76 91 92 79 77 92 93 85 73 50 34 32 33 17 8 6 6 7 8 9 9 7 6 6 4
59 39 47 73 86 90 96 88 95 96 96 88 85 80 67 58 77 74 94 82 96 100 94 93 92 94 75 31 33 33 18 10 7 6 7 8 9 8 6 6 4 4 4
95 93 94 97 96 97 96 99 95 94 97 94 71 59 78 95 90 97 88 97 94 96 96 94 95 85 42 37 28 20 11 9 7 7 8 9 7 6 4 4 5 5 4
98 98 97 97 96 96 97 94 96 95 92 78 83 94 89 95 98 92 91 96 81 96 96 95 94 79 33 31 25 13 11 8 8 8 9 8 6 5 4 5 6 6 6
86 94 96 95 94 96 96 96 97 98 96 94 97 95 90 96 97 96 92 96 98 84 88 96 97 84 39 22 16 12 10 8 8 9 8 7 5 5 6 6 7 7 7
65 72 94 92 94 93 91 92 95 92 96 84 90 66 86 93 85 94 82 99 98 88 97 96 90 44 33 28 18 11 10 8 8 12 8 7 6 7 6 7 7 7 7
64 59 70 87 85 69 52 63 71 73 86 74 63 66 83 90 84 87 88 97 100 93 100 98 84 78 56 34 14 13 11 11 11 13 8 7 8 8 9 11 11 9 7
42 43 53 60 57 55 43 55 67 71 81 88 88 72 77 85 86 86 93 97 100 99 96 90 84 54 53 18 14 12 11 15 22 20 10 11 11 15 16 13 9 7 8
40 42 46 48 43 47 49 61 80 91 59 88 77 83 87 90 83 84 84 99 97 100 91 80 33 47 29 15 12 11 11 32 37 34 20 20 23 22 20 19 19 25 33
51 55 66 58 73 51 46 61 68 70 86 77 76 98 98 90 81 81 89 88 98 92 81 68 61 30 18 14 13 12 11 34 39 37 37 42 44 40 35 33 38 37 26
61 62 53 54 57 57 53 55 67 68 80 71 87 98 98 92 79 85 97 90 84 78 69 47 25 21 16 13 13 12 13 27 41 48 48 49 54 45 42 44 50 60 58
36 46 43 32 59 61 55 48 54 57 52 52 64 76 72 70 81 86 75 66 60 56 36 25 22 19 16 15 14 20 32 45 62 57 48 49 52 53 49 51 68 71 66
22 24 33 39 48 20 11 14 20 24 22 26 39 54 60 62 54 49 38 39 24 24 23 22 21 18 17 17 20 26 36 55 77 70 58 59 54 45 44 42 61 78 93
16 18 20 18 31 48 16 14 12 11 10 24 46 52 53 71 82 71 64 26 25 21 21 21 20 19 18 16 21 28 35 39 64 67 64 41 27 22 18 35 50 66 78
13 12 10 9 9 10 12 7 8 7 7 11 13 19 32 66 79 88 66 67 22 27 24 20 19 22 23 33 46 57 59 65 73 68 56 35 25 14 19 24 31 32 53
9 9 9 10 11 11 10 10 9 8 12 21 21 21 22 29 30 59 68 66 67 50 47 53 49 54 56 61 70 95 70 65 58 36 45 24 12 16 25 43 74 79 90
14 12 11 12 13 15 17 13 10 8 15 21 29 30 27 25 33 27 39 74 92 71 72 90 73 68 79 81 97 95 85 56 31 13 13 17 15 20 24 30 39 44 29
43 46 51 29 34 34 21 16 18 18 20 41 45 39 35 35 48 63 56 62 83 83 90 84 96 88 86 53 56 50 44 19 13 12 14 19 23 30 32 37 30 31 33

GFSSE_500_rhum_045.txt.gz
RH
100 97 99 97 90 86 98 96 96 75 93 84 75 67 54 43 40 34 35 36 40 46 54 59 59 56 52 49 47 43 31 31 29 26 28 22 19 20 18 17 17 16 15
97 100 98 86 79 79 83 95 97 95 95 92 85 60 52 43 53 47 44 50 55 60 59 59 58 58 58 57 54 47 39 29 31 27 24 25 22 22 20 18 16 15 15
93 92 88 76 64 66 63 96 95 98 95 87 80 73 75 56 43 39 48 53 56 54 52 54 61 68 70 65 60 53 45 36 32 34 28 30 20 18 16 15 13 10 8
89 77 85 78 74 64 95 93 88 93 87 93 94 92 74 48 49 56 61 60 57 50 45 45 68 75 72 71 64 56 52 40 35 34 29 24 20 16 9 6 4 3 4
75 79 76 70 71 76 74 96 97 83 95 86 85 91 55 62 64 64 65 61 58 50 31 37 77 75 68 70 66 69 56 44 34 29 26 22 15 6 4 4 5 6 6
83 85 68 60 63 80 96 96 94 86 90 86 78 72 57 74 75 71 71 69 64 57 45 37 47 52 65 68 75 68 54 46 32 28 25 19 8 4 4 6 6 7 7
53 64 74 82 93 74 91 96 90 77 96 92 75 60 81 85 77 75 77 69 55 61 67 66 52 60 70 80 82 75 50 38 29 28 19 8 5 5 7 8 8 8 7
40 41 78 65 80 86 95 96 97 94 96 85 76 74 88 80 66 79 79 75 67 62 74 74 54 71 79 92 82 62 42 31 29 21 9 6 6 7 8 8 8 6 6
76 43 52 82 78 95 95 97 96 97 96 96 89 68 86 70 67 79 76 74 70 69 80 97 79 85 78 92 84 62 34 32 24 9 6 6 8 9 8 7 6 5 4
78 84 89 100 98 93 93 96 97 93 95 96 72 86 89 73 78 85 69 67 67 87 92 100 97 88 78 88 80 39 33 30 13 7 6 7 9 9 6 5 4 4 4
79 94 75 66 79 67 88 94 93 97 96 91 98 83 88 82 87 76 66 74 84 93 87 95 97 90 80 80 61 37 32 16 10 7 6 8 8 7 5 4 4 5 6
88 91 97 94 79 85 86 95 97 97 96 96 97 98 98 86 72 80 75 94 91 91 90 91 98 94 91 83 41 28 22 13 8 7 8 9 8 6 4 5 6 6 7
88 90 81 85 97 97 97 96 96 96 97 94 97 96 89 79 78 88 80 88 88 92 94 79 97 99 92 81 38 30 19 11 9 8 9 9 7 5 5 6 6 7 7
70 74 80 96 96 96 96 97 97 97 97 96 98 88 96 96 90 77 81 98 98 97 89 85 96 95 86 58 33 16 12 10 9 9 11 9 7 6 8 8 8 8 6
71 69 82 95 94 96 94 93 96 94 96 97 91 92 88 74 77 82 73 96 92 92 91 94 98 98 74 39 21 32 40 13 9 8 11 9 7 8 10 12 12 11 12
52 58 74 89 94 95 85 63 75 84 90 96 82 71 60 58 69 86 80 90 86 90 89 90 97 88 41 52 75 34 13 11 11 15 18 19 10 10 14 16 20 27 28
39 43 65 90 81 93 93 87 69 72 98 88 87 81 97 81 78 80 83 86 82 90 95 100 95 78 74 63 44 17 14 13 13 30 31 27 29 26 22 20 28 34 31
49 48 39 48 53 62 64 64 73 81 85 91 74 84 94 88 89 85 86 82 83 100 100 98 88 79 51 69 20 16 15 14 13 16 31 31 31 30 26 22 29 33 31
52 55 50 51 68 84 100 66 89 97 73 87 99 90 78 77 91 89 92 86 88 98 98 96 52 49 64 30 20 17 14 13 15 19 26 43 47 44 41 36 37 25 24
52 62 71 62 52 65 92 64 80 72 71 84 77 64 73 88 92 93 90 74 92 98 96 94 82 62 29 24 19 16 15 14 18 29 34 40 52 51 50 48 37 30 13
34 37 33 45 72 78 71 69 68 68 58 49 49 58 66 76 86 72 74 81 90 84 77 52 35 27 25 22 18 16 14 14 21 28 31 31 49 60 58 50 33 22 12
20 20 27 44 21 12 16 24 15 11 16 27 42 51 60 58 57 56 53 46 40 40 41 33 27 25 24 22 20 16 15 22 36 50 54 56 62 60 76 53 17 12 12
12 16 14 16 40 18 12 12 13 14 22 28 50 51 62 60 63 67 66 52 28 24 21 22 23 23 22 19 17 16 36 53 59 70 57 51 45 29 23 12 11 14 15
9 9 9 9 8 11 10 9 10 12 13 15 13 15 41 52 58 77 78 81 77 42 26 27 25 21 20 36 53 59 56 51 67 78 75 54 17 8 9 11 13 14 13
9 8 9 8 9 10 9 9 10 15 23 29 30 28 28 35 37 72 75 81 69 66 34 29 50 75 100 85 73 69 64 67 63 43 23 13 21 10 11 11 11 12 14
35 32 20 13 15 20 22 17 18 15 19 28 34 34 33 32 36 42 41 41 59 68 79 78 89 99 99 98 79 82 60 45 34 26 19 11 9 12 10 10 11 13 20

GFSSE_500_rhum_048.txt.gz
RH
70 78 98 97 95 91 92 87 89 97 97 93 94 86 74 70 62 52 47 46 44 48 53 63 65 60 58 53 50 48 47 44 41 39 38 35 33 29 25 21 19 18 16
93 95 97 100 98 95 89 81 82 96 98 88 80 73 74 73 69 55 45 47 50 55 62 60 58 55 52 54 54 55 54 48 45 41 39 36 35 31 24 20 18 16 15
98 88 91 96 96 81 79 77 71 93 97 94 84 82 76 73 68 50 50 49 54 54 58 53 48 45 49 49 61 63 58 52 46 44 46 41 34 27 20 16 14 11 9
96 82 88 83 89 80 64 73 59 81 97 96 89 86 72 59 57 60 67 64 66 61 56 48 45 44 52 61 62 63 58 53 53 50 47 39 28 22 19 11 8 4 3
88 93 97 87 81 68 56 56 48 80 95 97 76 62 61 59 52 60 70 70 67 60 60 50 47 33 44 61 51 55 63 67 59 48 44 36 26 17 10 4 4 4 5
71 98 88 75 67 52 53 50 48 90 96 96 96 76 62 42 54 69 72 73 75 69 62 58 55 48 41 45 57 59 70 66 57 50 38 28 21 11 5 4 4 6 6
59 74 71 67 62 61 74 63 50 89 97 95 91 92 60 61 61 72 72 79 74 73 60 67 71 71 59 48 66 81 78 70 58 49 36 28 14 6 4 5 6 6 6
45 61 59 56 69 65 80 96 88 85 96 94 95 78 67 65 60 66 76 86 81 78 75 69 77 80 72 58 73 88 83 60 57 43 32 18 7 5 6 7 7 6 5
61 69 82 78 65 74 84 86 93 95 96 94 89 86 83 59 59 67 80 87 81 80 81 76 90 90 87 75 89 93 63 51 48 35 24 10 6 6 8 8 6 5 4
90 79 98 98 77 88 97 95 96 98 95 84 88 94 73 75 60 77 84 88 87 83 81 85 92 93 97 92 92 54 74 44 30 25 9 6 6 8 8 6 4 3 4
100 82 99 88 95 97 97 95 96 97 96 96 90 80 99 77 70 94 94 97 89 74 83 90 96 96 100 97 92 96 51 28 28 13 7 6 7 8 7 5 4 4 5
74 92 96 97 95 93 81 90 96 96 97 97 94 94 92 70 96 98 99 85 72 94 97 96 100 94 100 95 95 90 46 29 18 10 8 7 9 8 6 4 5 6 6
92 92 97 94 89 92 81 94 91 97 97 96 97 92 88 96 98 96 81 76 87 90 99 95 95 96 100 99 100 88 50 26 15 10 8 8 9 8 6 5 6 6 7
93 94 94 97 98 92 95 96 97 96 98 97 96 90 97 98 96 90 81 79 88 100 100 96 90 94 100 99 80 43 40 22 14 10 8 9 11 8 6 7 7 8 7
62 72 85 97 96 86 95 97 97 96 97 95 96 96 97 96 93 95 96 96 92 100 100 97 93 95 100 100 94 44 19 15 13 19 18 16 16 10 7 8 9 10 9
57 67 75 96 97 94 97 92 96 96 97 96 96 98 89 81 88 90 96 99 95 96 100 99 97 99 93 78 49 42 20 43 45 20 18 25 28 23 16 10 9 11 12
48 50 52 95 97 96 95 96 95 96 96 97 97 95 88 99 88 82 99 98 100 98 94 91 96 100 99 86 56 37 63 61 22 16 27 21 18 25 24 21 20 23 20
66 47 47 71 99 96 94 98 97 91 95 96 97 84 86 94 94 94 98 99 97 92 97 96 98 100 100 81 63 73 46 22 28 54 17 12 12 14 18 19 17 29 40
59 64 98 62 85 88 95 97 82 70 84 94 94 92 92 96 92 94 99 100 98 100 98 100 98 98 85 88 87 79 30 19 22 17 14 13 11 15 20 23 31 43 41
52 65 93 67 74 86 68 85 87 74 71 94 95 95 86 90 99 100 99 98 98 98 98 97 96 95 93 76 95 44 22 20 17 16 16 15 24 32 37 37 48 52 46
38 39 81 84 69 99 92 100 98 78 100 100 93 95 96 100 100 100 98 100 92 94 98 97 97 93 92 74 53 30 20 18 16 14 11 18 32 55 59 60 59 57 59
18 33 38 27 62 79 83 98 94 80 89 99 96 99 97 97 100 100 96 92 95 93 95 93 99 95 81 61 35 24 21 18 15 13 19 56 56 55 52 58 49 34 21
11 17 16 36 14 20 40 42 43 57 59 44 53 55 54 66 65 73 76 70 83 83 82 78 62 48 37 29 25 21 19 18 15 17 46 62 69 76 70 54 15 10 12
10 11 11 11 30 16 12 14 13 18 25 27 38 41 50 58 61 60 59 51 42 38 34 32 30 29 28 24 20 18 18 19 40 66 69 72 64 44 19 22 19 11 11
8 9 9 9 10 10 10 10 11 12 11 13 16 22 45 59 68 80 82 74 74 73 58 57 26 29 26 24 24 24 43 68 73 68 59 44 36 25 12 10 9 10 10
12 11 12 11 13 16 19 19 14 12 18 24 29 30 30 32 42 48 64 81 89 87 80 75 67 54 74 89 83 91 82 78 73 68 56 53 29 10 10 10 10 10 10

GFSSE_500_rhum_054.txt.gz
RH
6 5 7 16 23 36 43 52 75 97 71 91 93 82 90 90 96 82 51 42 36 41 40 39 42 46 49 51 49 48 49 50 51 50 45 44 41 38 42 42 35 25 21
8 9 7 16 39 60 56 71 96 94 93 91 91 85 85 96 96 83 53 46 39 39 40 48 54 52 49 47 48 50 51 57 57 53 49 46 41 47 45 38 26 21 18
32 36 35 15 33 54 74 97 96 97 99 97 92 90 80 88 91 78 80 51 39 40 50 42 47 47 46 47 45 52 61 64 56 53 50 48 49 48 41 28 20 17 14
43 54 40 36 32 34 76 87 97 95 93 90 79 89 91 90 96 94 88 58 46 46 42 43 48 48 47 48 47 54 60 64 63 60 55 51 47 43 27 21 11 9 6
43 50 52 48 61 59 32 71 91 94 94 79 79 83 100 96 95 95 82 50 48 50 48 52 55 51 53 59 60 60 56 53 65 62 61 52 47 36 22 18 9 6 4
35 56 48 66 91 67 83 69 82 83 87 86 84 99 97 92 95 92 63 54 72 54 57 62 60 58 65 70 74 70 66 69 75 70 58 47 43 29 19 9 5 5 6
52 70 60 75 88 83 96 77 59 54 57 84 91 96 98 96 94 92 56 68 64 65 60 58 66 65 69 70 73 75 69 77 86 74 55 37 33 22 16 7 5 6 7
60 66 77 78 81 58 91 96 46 47 63 58 74 85 95 97 95 81 65 80 70 64 58 75 74 74 73 71 82 88 84 86 85 72 53 30 27 19 10 6 6 8 7
52 65 95 97 77 61 91 93 65 51 58 82 70 76 93 97 96 87 82 73 72 63 78 78 74 76 76 95 78 88 93 93 82 68 62 32 23 14 6 6 8 8 6
56 60 94 93 96 76 81 96 95 55 68 80 96 94 90 97 96 100 94 87 80 79 78 77 78 73 78 69 85 82 86 86 84 64 53 25 24 11 6 7 9 7 5
68 86 95 96 96 92 69 83 87 65 74 78 83 98 91 95 93 93 93 84 87 79 74 78 83 70 74 77 80 78 82 86 67 57 30 30 20 8 6 8 8 6 4
71 80 97 95 97 94 90 92 89 94 96 88 96 99 97 95 96 95 85 84 84 84 79 83 84 72 76 89 76 79 78 75 69 37 59 53 14 8 7 8 8 6 4
61 74 85 99 86 100 100 94 99 97 97 90 97 97 96 96 94 97 76 86 84 80 87 82 70 78 85 90 86 86 85 78 79 73 49 31 12 8 9 9 8 5 5
51 63 91 95 97 96 98 98 98 92 96 91 97 97 96 96 91 95 93 87 86 85 85 82 80 79 76 93 89 90 83 73 85 77 21 40 27 10 11 10 8 6 6
48 56 79 96 97 96 99 97 98 94 96 98 97 96 97 92 96 96 88 93 78 91 90 82 68 68 79 87 86 89 77 76 66 53 44 38 11 12 13 12 9 8 7
53 49 88 88 97 96 96 96 97 96 97 97 96 97 95 96 96 91 98 87 80 93 88 88 80 77 79 84 89 92 76 74 70 81 45 15 18 25 22 24 29 16 15
58 59 49 79 96 96 96 96 95 97 97 97 95 96 96 96 96 97 96 90 87 88 96 91 84 83 80 88 94 97 97 96 90 31 36 41 34 37 28 31 20 12 10
41 51 47 72 96 96 97 96 97 96 96 97 95 96 96 97 96 96 96 93 91 100 92 91 83 86 81 86 94 97 97 79 38 44 28 27 33 44 64 27 13 11 10
37 44 44 55 96 96 96 96 90 98 97 97 97 96 97 96 97 96 98 98 96 97 87 81 72 79 87 94 96 95 95 98 80 34 29 44 52 56 24 23 13 11 14
26 47 54 46 91 95 96 96 96 96 97 96 97 97 96 96 96 96 98 96 94 88 87 82 80 85 92 96 100 98 98 95 44 44 50 58 66 21 31 15 13 12 15
14 30 36 63 79 93 95 97 96 96 95 96 96 97 97 97 96 97 97 97 97 92 95 90 87 90 93 95 100 100 85 80 77 70 56 68 26 27 20 15 13 13 18
9 15 29 27 42 70 87 92 93 96 94 95 96 96 96 96 97 96 97 98 98 94 93 91 91 94 89 93 95 97 96 94 71 68 76 62 32 22 21 18 15 14 15
7 7 14 20 20 64 81 82 95 96 89 95 90 88 96 97 98 98 95 95 98 95 90 89 92 91 90 87 98 93 84 78 69 82 71 42 29 25 22 18 17 36 56
9 7 9 12 29 14 58 79 89 92 97 93 98 99 98 100 100 96 97 95 96 96 90 90 78 79 83 83 79 86 83 77 80 78 55 41 32 25 22 19 32 64 63
10 7 7 7 7 20 14 18 28 30 47 59 80 95 94 78 71 76 86 86 84 77 64 70 61 65 64 81 92 76 76 78 73 64 52 40 29 24 21 46 79 75 78
12 11 9 8 7 7 7 9 10 10 11 21 30 40 39 34 44 48 50 49 63 61 53 62 60 50 51 72 80 70 67 48 45 35 30 27 24 29 64 89 85 91 86

GFSSE_500_rhum_057.txt.gz
RH
3 3 3 4 4 9 17 38 52 56 51 35 26 27 29 84 96 98 96 80 51 44 41 39 36 36 42 43 47 45 46 46 48 52 48 46 45 40 42 43 38 33 23
9 10 9 11 6 13 24 31 45 54 53 46 45 42 66 55 75 96 95 77 48 45 45 39 38 41 48 44 46 47 50 54 54 52 51 48 44 43 48 40 29 22 18
14 16 32 21 16 16 36 41 33 47 66 94 86 75 94 82 78 90 95 77 56 49 46 39 40 47 48 48 48 48 47 53 56 51 47 46 48 49 42 30 21 16 15
15 19 27 34 36 30 60 34 33 49 87 96 96 87 95 88 92 99 94 97 84 58 49 43 49 63 48 49 46 48 49 47 44 46 58 56 54 50 39 22 16 11 8
15 18 27 35 36 32 65 39 31 43 88 99 96 97 96 95 91 99 93 88 81 87 71 58 70 47 49 45 51 53 55 54 49 56 60 59 51 42 35 18 13 7 5
24 21 28 34 44 32 73 70 33 25 58 87 96 90 95 94 87 83 84 97 94 89 80 79 52 51 50 55 60 60 63 58 51 48 60 62 51 45 25 16 7 6 5
45 48 44 41 59 50 67 81 88 38 52 59 79 86 85 95 94 83 91 95 90 62 84 56 61 55 57 61 67 69 68 65 60 65 64 63 54 44 23 14 7 5 6
46 51 70 79 57 71 72 93 96 68 67 71 53 58 94 98 95 96 96 96 85 93 63 59 60 61 67 66 66 65 72 74 70 71 71 59 51 44 24 16 6 6 7
51 56 54 76 88 79 70 88 97 95 58 51 58 54 90 97 97 95 95 95 83 91 70 59 71 69 73 73 70 76 75 72 76 79 74 63 55 34 24 12 6 7 8
68 57 60 66 80 96 64 57 96 97 96 87 82 68 86 91 96 95 94 84 92 90 83 72 72 75 83 78 80 74 72 70 71 77 70 74 53 27 19 8 7 8 8
66 88 76 88 86 99 82 63 92 97 97 91 95 86 87 82 86 98 89 86 94 92 87 70 78 79 81 69 66 70 71 67 72 74 70 69 33 32 17 8 7 9 7
64 76 69 85 87 87 75 67 78 94 94 93 92 90 98 94 96 97 92 89 96 94 86 81 76 84 78 74 67 74 72 68 71 67 65 41 26 27 13 8 8 8 6
54 66 75 94 93 82 76 85 96 97 96 88 98 81 79 97 88 96 96 95 92 85 83 83 81 79 75 67 66 78 77 74 71 63 63 46 43 56 12 9 8 8 6
35 40 68 96 94 81 75 95 95 93 97 94 95 96 92 96 96 97 95 94 93 88 82 87 77 75 59 51 63 79 78 77 80 81 71 72 41 29 16 10 10 9 7
43 35 45 89 93 88 89 94 82 94 96 95 97 96 96 95 97 95 96 94 90 90 81 79 79 80 72 60 73 79 81 84 84 70 78 69 26 39 35 12 12 10 8
45 49 42 52 93 97 96 95 94 96 96 97 96 98 98 97 96 96 95 88 89 82 86 77 86 84 68 69 76 79 79 85 79 73 69 57 40 47 14 20 18 29 33
38 43 48 44 62 90 92 84 75 87 89 98 96 100 97 92 97 97 88 91 92 81 85 84 93 81 78 75 72 77 78 88 76 71 69 51 69 18 19 31 40 40 56
29 36 41 43 51 91 94 94 90 81 97 96 96 97 93 94 96 96 93 90 88 80 89 85 91 88 84 79 79 85 89 89 88 80 76 88 33 40 34 57 62 52 20
16 32 49 44 54 96 95 94 94 88 97 96 97 97 92 95 96 96 95 91 89 84 96 93 95 89 83 82 82 90 90 93 91 95 90 45 26 38 30 47 70 30 32
13 17 49 61 64 94 96 95 96 98 97 97 96 97 95 96 96 97 97 96 96 94 97 98 98 84 73 77 83 90 95 96 97 93 77 52 55 31 55 66 47 28 20
13 10 32 29 58 91 94 96 96 96 97 97 96 97 96 96 96 95 95 97 96 96 96 97 86 86 89 87 91 98 100 97 100 95 96 73 40 49 61 60 27 28 17
14 8 13 24 24 60 78 80 95 97 96 94 93 96 97 96 97 96 95 96 97 95 96 96 94 92 95 91 85 86 88 94 99 97 92 63 65 60 63 38 38 27 24
16 9 6 13 26 27 75 98 90 95 96 94 96 96 96 97 95 94 95 97 96 96 96 97 95 89 85 80 84 86 84 90 88 83 87 80 70 68 72 47 28 26 24
18 10 7 9 12 21 41 80 93 93 96 95 95 95 91 88 94 96 97 96 93 90 90 95 89 90 78 76 73 80 75 75 90 91 80 67 69 70 55 44 36 28 25
17 10 7 7 6 9 23 17 33 56 47 77 87 87 86 90 91 95 94 90 89 93 95 88 74 61 57 63 67 76 77 76 74 72 82 94 79 69 56 45 36 26 20
24 14 15 13 8 6 6 12 13 11 21 15 30 64 94 96 88 68 60 75 82 91 86 74 77 60 54 66 80 84 84 90 84 89 86 78 64 56 40 30 28 28 42

GFSSE_500_rhum_060.txt.gz
RH
21 13 5 3 3 4 3 4 7 8 10 19 29 27 25 29 55 79 78 82 83 81 62 46 42 39 39 40 42 42 43 44 42 45 44 46 45 42 39 43 40 37 28
22 26 10 9 7 7 4 5 8 10 13 32 36 33 22 31 39 95 98 90 90 83 61 45 42 41 43 43 40 42 42 46 47 50 50 49 46 44 45 44 39 29 22
9 12 13 17 30 18 9 8 8 8 19 51 52 48 32 28 35 55 94 97 91 87 56 49 49 45 44 49 47 40 43 42 48 55 49 51 49 50 49 44 33 24 18
7 9 11 12 17 29 29 24 14 11 15 28 42 42 43 46 48 69 65 98 94 82 67 56 55 44 52 66 49 44 42 46 45 44 45 44 46 53 48 38 24 17 8
29 20 18 20 23 29 27 30 39 53 43 38 74 90 89 87 73 92 86 96 94 86 68 65 63 58 67 62 48 53 50 50 51 51 48 43 48 55 51 38 24 15 10
33 32 34 32 27 33 40 40 50 70 48 41 79 95 98 98 98 99 98 98 95 94 87 83 74 85 89 55 48 50 51 60 60 50 42 45 56 55 48 34 28 16 10
35 32 40 42 42 42 43 66 76 70 78 35 55 80 97 94 95 92 98 96 95 94 94 92 74 88 58 50 48 55 61 63 60 54 51 54 60 53 46 30 22 12 7
34 32 37 45 49 64 76 68 95 96 96 64 77 59 92 92 97 95 96 95 96 90 90 92 90 65 53 50 57 59 60 56 62 65 61 60 61 58 49 30 22 12 6
31 27 45 68 60 56 96 74 96 96 97 96 84 57 65 78 95 97 99 95 96 92 91 94 69 67 57 62 62 61 64 65 63 59 70 66 66 61 48 30 19 8 6
26 28 48 64 70 94 93 84 96 92 95 99 97 68 55 57 89 98 97 97 97 93 90 95 65 65 69 53 67 64 63 59 59 62 65 69 68 71 52 26 16 7 7
27 35 48 75 83 87 86 90 94 91 94 99 97 57 59 58 68 88 97 96 96 93 95 86 76 74 56 66 68 60 59 63 68 66 68 70 67 64 35 33 13 7 8
27 34 56 62 74 97 95 94 96 94 95 98 98 83 84 66 74 96 97 95 98 92 90 82 83 76 63 79 70 60 63 67 67 70 71 68 65 46 28 30 13 8 8
19 31 31 40 78 98 92 88 90 90 96 96 95 85 97 94 89 99 89 97 93 81 81 88 80 82 78 78 61 66 61 72 67 67 69 64 58 35 32 44 14 8 8
17 34 33 36 82 100 88 68 69 81 95 96 98 84 62 88 97 99 82 97 95 81 86 80 82 86 78 78 66 56 56 74 74 68 70 72 67 54 58 33 17 10 9
13 31 43 35 70 98 96 65 67 81 96 96 97 83 88 85 91 97 97 100 95 94 93 64 79 81 79 77 63 56 58 75 74 72 77 81 70 74 49 41 22 14 12
15 22 37 42 41 67 98 74 70 83 86 91 94 82 94 96 92 94 92 96 95 93 89 68 75 87 74 81 74 64 69 75 81 83 84 77 74 60 40 38 42 14 20
14 15 25 36 46 45 81 78 80 71 80 73 68 92 97 94 92 92 90 82 99 95 90 69 72 86 84 80 70 71 72 69 84 90 83 80 75 54 51 36 17 24 31
16 13 17 35 33 37 68 72 74 72 72 71 77 95 93 97 90 97 95 97 90 95 89 74 87 90 88 82 69 69 73 78 86 87 86 77 76 60 63 37 26 51 49
17 14 13 29 39 45 61 81 78 65 65 71 83 97 98 98 94 99 97 97 96 96 94 75 86 91 93 85 80 77 82 75 78 84 86 86 84 78 77 38 40 48 73
19 15 12 27 42 46 90 89 77 73 72 77 85 87 85 90 98 98 97 96 97 96 95 82 83 96 97 87 85 78 80 78 79 83 93 90 95 92 46 35 33 54 54
19 15 12 16 29 30 75 94 71 80 85 84 79 88 94 94 97 98 95 96 98 96 96 90 92 96 96 94 87 90 86 77 80 89 92 96 95 83 49 39 49 58 65
21 16 12 8 17 22 43 65 70 93 94 98 93 96 93 90 96 96 97 88 95 96 96 96 97 96 96 96 94 85 79 78 89 93 93 95 94 96 81 58 51 58 62
23 17 11 7 11 23 33 64 84 84 90 95 95 84 96 92 96 95 94 94 98 94 97 97 96 96 96 95 83 83 83 94 93 92 92 89 92 91 80 64 63 61 54
24 17 9 6 6 22 21 44 71 76 92 89 92 95 95 95 95 97 96 95 88 94 97 97 96 95 93 97 82 89 86 85 95 100 88 80 83 86 83 70 68 68 51
25 15 9 7 6 6 15 26 20 34 73 67 94 94 96 94 95 95 96 94 93 90 94 98 96 86 88 81 81 69 70 69 76 87 90 96 84 89 84 78 75 73 65
32 25 14 17 14 8 6 6 11 11 17 39 40 59 89 94 93 95 96 96 92 83 91 98 94 93 72 62 77 94 84 85 83 91 90 82 78 89 89 94 93 75 51

GFSSE_500_rhum_066.txt.gz
RH
10 12 8 5 5 8 18 20 14 6 5 5 4 4 4 5 6 10 19 31 42 59 64 74 67 61 58 55 46 41 41 42 41 35 35 32 33 34 37 36 33 37 37
14 13 11 9 10 7 5 4 10 8 5 5 4 5 5 6 7 12 20 31 31 47 72 86 76 68 62 54 46 43 42 38 38 36 35 35 37 34 34 34 36 41 37
16 17 18 18 15 9 9 10 8 8 10 7 5 5 5 7 9 14 30 37 53 64 86 92 85 75 63 56 48 47 44 41 42 38 37 35 34 35 36 39 45 41 25
19 20 18 21 24 25 13 13 15 14 15 12 8 8 11 10 12 15 30 51 62 77 100 96 92 83 66 56 50 53 52 44 44 40 36 31 35 35 34 42 47 36 23
20 25 21 20 23 28 28 19 22 28 24 21 15 10 11 16 16 27 29 48 58 61 85 99 91 84 74 60 51 55 49 48 44 42 37 33 36 35 41 49 46 32 18
20 20 23 23 24 29 32 32 28 23 32 28 25 26 19 11 15 51 65 55 46 50 61 81 95 78 68 73 57 57 54 55 49 50 42 47 44 38 47 54 44 28 15
20 17 20 26 23 26 33 45 39 39 37 36 36 39 50 41 26 13 15 54 61 54 50 51 84 94 64 62 62 68 61 74 89 57 53 54 44 41 53 56 42 31 22
17 13 10 20 22 32 31 62 78 62 55 41 43 68 70 76 55 42 34 28 41 64 62 67 66 89 87 80 74 73 70 78 56 57 56 56 50 51 57 58 40 36 24
21 17 12 14 22 31 34 36 74 96 92 96 93 97 96 96 92 47 85 82 68 82 85 99 97 94 83 80 79 89 89 54 68 64 56 60 62 58 58 56 42 41 30
6 5 7 13 18 29 44 55 74 81 97 96 95 96 96 96 94 87 68 94 98 91 95 97 98 89 85 83 92 94 72 72 65 58 69 72 73 70 59 58 53 40 30
6 7 11 12 15 27 32 54 63 77 96 98 97 95 96 94 96 78 76 98 97 98 96 96 90 78 86 96 96 84 63 68 69 72 64 62 74 73 67 65 61 43 32
7 16 12 10 16 30 34 40 59 78 96 96 95 95 96 96 97 96 89 78 90 88 92 94 93 90 98 97 92 77 69 69 76 74 62 59 68 71 69 70 52 44 26
9 18 14 12 18 32 39 45 81 96 94 86 95 92 94 97 97 94 87 69 87 80 96 96 97 91 98 98 76 72 73 77 80 66 72 65 68 74 64 59 51 49 34
16 22 17 12 14 27 39 44 82 98 93 80 80 86 86 95 88 90 84 61 65 90 92 93 90 88 94 97 90 74 78 77 81 76 74 75 70 68 68 61 56 47 42
23 21 15 13 13 19 37 44 66 83 78 78 82 88 91 86 84 60 73 69 68 70 75 86 84 89 97 96 81 77 88 66 80 74 60 83 76 70 72 72 65 63 55
20 21 18 15 12 19 39 41 66 72 71 92 94 87 94 91 74 68 73 100 99 85 94 96 95 89 96 95 82 86 84 71 72 62 69 76 72 82 80 75 74 66 52
20 22 17 15 12 17 37 41 57 79 89 92 86 93 96 86 92 84 93 100 95 100 99 97 94 85 89 95 95 84 82 71 81 64 74 79 73 75 78 81 75 65 61
18 19 18 16 12 26 42 49 56 78 86 76 78 95 95 92 74 69 87 91 95 90 95 97 80 92 87 91 96 90 80 70 82 74 77 75 70 70 85 83 78 67 48
15 14 18 15 13 17 25 47 88 74 78 84 85 99 96 92 90 74 78 71 85 84 75 78 79 95 96 88 97 96 87 77 76 80 80 78 71 76 86 86 79 72 59
13 15 17 15 13 10 23 70 99 95 88 82 83 81 87 87 84 72 69 75 86 79 84 77 83 100 95 91 96 94 96 85 80 85 86 76 78 88 91 91 84 83 63
11 17 18 16 12 9 23 38 90 92 88 80 72 73 71 68 81 83 79 79 69 90 83 85 69 76 87 97 96 96 97 95 93 95 83 88 88 91 96 95 94 88 80
16 19 20 15 9 7 20 42 68 82 78 80 72 67 67 74 82 88 80 76 76 79 80 94 94 83 72 97 96 96 95 96 97 91 90 93 90 90 97 98 99 99 100
17 23 20 14 7 6 14 32 83 88 90 80 78 73 84 91 89 92 98 91 74 83 93 96 95 82 93 97 96 98 96 97 95 96 96 92 87 86 94 98 98 99 100
17 24 19 12 8 6 6 22 27 74 94 80 88 80 97 99 100 99 97 96 93 99 87 83 76 89 95 98 97 95 99 97 98 94 92 94 95 93 100 100 96 89 83
20 22 19 11 12 11 7 7 17 30 45 68 85 89 96 95 97 99 100 96 95 95 88 94 88 92 97 97 98 98 98 98 93 96 95 86 80 86 86 86 91 85 95
16 24 22 17 18 14 10 6 6 9 20 30 57 95 90 96 97 96 97 98 98 93 98 100 99 96 97 99 99 98 98 98 95 87 71 68 76 76 75 78 87 90 86

GFSSE_500_rhum_072.txt.gz
RH
25 12 6 5 4 7 10 10 9 8 7 5 4 4 7 11 8 7 5 5 6 8 11 15 20 24 30 35 59 62 55 47 45 45 42 42 44 42 36 34 33 29 33
20 9 6 4 7 13 13 12 10 9 9 8 7 6 5 6 10 8 5 5 7 8 12 19 25 34 42 65 70 65 54 50 50 44 45 47 45 41 37 33 31 32 33
15 10 5 5 10 12 12 11 11 10 10 11 10 8 6 6 6 8 5 6 8 10 14 21 37 42 55 92 77 63 57 52 47 45 48 51 45 41 38 33 32 30 34
17 8 5 7 10 11 12 12 11 13 15 18 16 13 9 10 11 12 6 6 8 11 14 22 40 55 82 95 84 56 53 53 50 47 52 50 47 42 41 34 33 33 37
13 6 4 9 11 12 13 12 12 15 18 23 24 19 16 14 14 15 10 7 7 10 13 23 44 63 96 97 90 74 57 44 49 50 51 51 50 48 48 49 38 40 44
10 6 6 11 10 12 13 12 13 16 20 24 26 28 22 22 22 21 17 10 12 12 20 29 42 84 92 93 92 72 51 42 46 56 53 56 59 69 62 45 41 48 44
10 5 9 11 10 16 16 11 12 18 26 32 36 40 35 25 28 27 26 20 12 8 11 24 48 73 85 96 96 51 45 60 69 55 56 60 71 84 55 48 49 52 43
9 6 8 10 9 16 15 15 33 63 55 54 58 62 67 73 75 40 32 32 23 12 10 20 37 52 78 87 84 88 68 48 56 62 70 85 87 71 60 48 52 54 45
12 5 7 9 8 13 10 25 57 56 60 65 90 95 94 96 95 96 88 51 48 25 30 58 65 59 46 78 99 74 49 43 84 84 81 93 72 66 57 53 54 56 49
11 5 5 7 6 6 8 29 55 48 41 38 60 87 96 97 96 96 96 95 82 57 31 53 69 71 66 71 93 95 65 91 57 72 93 85 73 69 70 65 57 57 54
10 7 7 6 6 5 11 12 25 25 30 28 58 94 95 97 97 96 97 97 96 96 63 24 49 66 71 77 81 99 78 63 74 88 94 87 74 80 82 72 63 59 56
10 8 6 6 6 13 13 11 10 16 28 39 58 76 95 96 96 98 96 96 98 97 84 78 28 57 61 86 100 81 35 70 92 98 89 74 74 79 79 77 70 67 63
11 10 8 6 9 17 14 10 10 16 28 38 56 81 88 96 96 97 96 96 99 79 68 82 61 58 100 90 94 76 81 94 96 94 81 82 84 76 71 68 68 66 68
12 12 8 7 15 17 12 11 11 13 29 36 58 80 75 96 97 91 90 97 97 88 81 89 97 96 98 84 86 83 95 96 98 88 85 90 79 76 71 72 71 68 60
14 12 7 8 15 17 14 11 11 11 22 39 54 89 88 92 93 90 94 95 100 91 88 79 95 92 99 98 94 96 94 97 91 89 96 88 80 80 75 74 74 68 67
15 15 8 9 16 18 13 12 12 26 33 37 49 81 93 86 90 96 96 96 98 96 95 85 91 87 92 91 86 96 97 96 87 95 93 85 80 70 76 81 77 72 71
17 17 9 10 16 18 13 14 16 38 39 41 72 91 88 89 90 97 95 97 98 97 92 79 82 88 76 83 95 94 97 96 94 95 94 84 76 65 70 88 87 76 77
22 14 9 10 14 15 16 14 12 27 30 44 85 96 94 97 97 96 96 99 99 96 71 80 65 87 94 96 96 95 97 97 95 100 94 86 79 63 72 83 89 84 77
23 13 7 10 12 17 16 13 10 16 27 68 88 93 97 92 90 95 98 98 97 60 76 96 76 93 100 97 98 96 96 98 93 91 92 90 88 76 74 89 91 84 77
25 12 8 11 13 15 16 9 12 18 33 90 83 95 97 97 92 97 96 97 69 55 89 95 94 100 98 94 92 98 92 97 98 89 87 91 93 93 90 87 91 88 86
27 12 10 13 15 18 11 8 12 20 52 93 92 97 97 98 98 97 89 92 71 79 88 80 81 84 84 91 93 92 80 97 96 98 96 90 90 90 87 94 96 96 95
21 14 15 17 21 16 8 7 18 51 86 100 96 96 97 97 96 97 96 80 72 84 75 72 81 89 92 96 96 99 97 96 96 97 98 97 90 96 96 95 96 96 96
20 18 21 23 21 15 7 7 19 38 70 92 93 93 96 97 97 96 96 96 97 92 88 85 100 100 98 95 91 94 93 92 97 97 97 97 97 95 96 96 96 96 97
25 21 24 27 23 15 8 7 10 16 68 79 79 86 88 88 96 97 98 97 93 96 92 98 95 100 100 100 98 93 95 97 92 96 97 97 97 97 96 97 96 95 98
37 22 26 29 23 14 14 11 7 7 18 28 60 81 84 79 77 90 96 97 97 97 96 97 98 92 96 98 98 95 98 100 98 96 96 99 99 96 89 98 98 97 97
41 26 30 29 21 14 18 14 9 8 7 9 16 53 75 82 79 80 84 94 96 92 89 95 97 97 92 98 98 96 98 96 98 97 98 94 92 96 98 97 97 97 97

GFSSE_500_rhum_075.txt.gz
RH
10 10 13 12 8 6 4 4 6 7 8 8 8 7 6 5 5 10 11 8 5 4 7 10 14 20 27 36 34 38 53 58 50 41 44 42 40 43 44 37 35 32 34
12 11 14 13 8 5 4 7 9 9 8 8 7 8 9 7 6 6 9 10 7 5 6 11 19 32 40 48 50 70 65 54 45 40 41 41 43 46 42 37 35 41 33
14 15 15 14 8 4 6 9 10 10 9 9 10 12 12 10 7 7 8 9 8 7 7 12 19 30 48 58 79 80 65 50 39 41 40 44 47 50 43 38 36 33 31
13 17 16 14 7 4 7 9 9 8 9 12 18 17 15 15 10 9 11 19 38 9 20 13 27 50 67 78 93 85 60 45 40 40 41 46 52 50 45 41 45 35 33
15 19 18 14 7 4 9 9 8 8 12 14 24 24 20 18 17 12 13 15 10 8 19 27 33 64 76 94 92 90 59 56 38 39 46 51 51 51 50 44 61 38 39
18 20 20 14 6 5 8 9 8 10 16 23 18 19 21 24 27 20 18 19 13 9 16 51 68 61 63 72 85 91 60 48 56 38 42 48 52 54 53 67 45 41 46
20 21 21 15 6 5 8 8 9 12 17 26 50 44 46 45 40 34 42 31 34 14 27 45 91 78 57 92 84 58 92 53 35 40 46 50 60 60 56 60 52 43 50
24 23 23 13 6 6 8 7 12 24 32 68 82 74 87 80 75 69 75 65 50 18 10 16 47 70 99 88 93 65 89 24 27 59 60 55 68 74 86 60 55 45 52
27 24 27 13 6 5 7 7 15 41 47 65 87 94 96 97 96 95 95 92 59 43 13 9 18 43 85 88 99 95 98 34 68 45 45 65 79 86 67 66 53 51 54
31 30 24 10 6 5 7 7 12 13 41 53 39 37 80 94 96 93 96 96 93 63 47 16 31 58 83 70 96 97 90 70 24 38 56 79 92 94 69 64 60 54 54
38 32 20 8 8 7 6 6 9 12 20 24 23 40 67 73 84 94 97 95 97 96 91 74 39 49 84 62 92 93 79 49 47 54 80 77 86 81 71 73 70 62 54
45 39 17 8 7 6 7 11 15 12 16 23 21 37 55 73 94 86 91 97 97 96 98 76 39 56 75 83 81 91 97 97 81 78 67 94 90 80 73 77 78 70 56
53 42 18 10 8 7 12 18 16 12 12 11 18 32 44 53 80 95 96 97 96 96 95 85 82 50 63 71 72 87 88 79 63 62 84 96 88 83 80 74 75 72 64
55 41 14 12 10 9 19 20 15 13 12 11 23 33 41 65 76 95 96 96 92 97 96 81 77 70 38 50 73 88 89 66 33 58 91 91 96 84 80 74 75 68 65
60 41 16 12 10 10 18 18 15 13 11 12 25 44 50 66 73 96 95 95 95 98 96 78 77 76 40 38 98 79 74 82 62 89 98 92 96 91 81 74 76 72 70
65 54 17 14 10 12 18 19 15 13 11 25 40 39 44 65 84 95 97 97 96 97 95 83 87 82 79 93 99 85 78 96 99 99 94 96 90 92 87 78 78 75 73
75 50 18 17 11 10 20 18 13 14 13 28 37 34 55 73 90 92 94 98 94 99 96 95 86 75 81 78 87 90 90 95 100 98 89 95 89 96 92 84 86 83 78
74 34 20 21 14 12 15 14 14 14 12 13 19 32 68 92 94 95 98 97 98 98 93 97 99 81 83 75 93 96 98 98 94 97 95 93 89 93 89 88 92 90 89
71 29 25 24 10 13 15 18 16 14 10 15 23 40 84 96 95 91 85 91 97 97 98 98 86 75 84 94 100 96 95 95 92 100 97 94 92 92 83 85 86 84 90
69 30 31 16 11 14 18 16 15 10 10 17 27 72 83 96 96 93 94 95 97 96 97 93 60 72 81 80 88 89 92 99 100 98 98 92 97 91 88 91 91 84 83
71 34 35 13 15 19 19 16 9 8 19 44 73 86 84 96 96 98 97 98 95 97 96 68 91 78 78 71 82 92 91 97 97 89 98 95 96 98 95 93 95 89 88
88 45 22 14 21 23 19 12 7 22 64 84 93 100 96 94 97 96 98 97 97 97 92 81 94 97 95 84 88 94 91 93 98 97 98 97 95 96 97 96 95 95 96
84 49 16 21 26 22 18 8 7 18 24 67 86 94 95 97 96 96 97 97 96 97 87 87 96 99 99 94 95 93 91 92 96 95 97 96 97 97 97 95 91 97 96
71 42 17 27 28 22 16 8 8 10 20 72 73 85 94 96 97 97 97 96 95 80 82 90 95 95 98 96 94 94 97 90 86 99 95 93 96 98 98 98 97 96 95
58 34 20 29 29 22 16 12 12 7 7 18 30 73 89 89 95 97 96 96 96 97 96 97 90 83 94 93 91 95 95 94 94 94 98 94 96 98 95 97 96 98 98
53 38 23 29 32 23 17 16 15 8 8 7 11 21 72 82 86 83 94 96 96 92 96 98 96 83 92 96 95 97 96 98 98 97 97 99 100 96 93 76 71 83 93

GFSSE_500_rhum_078.txt.gz
RH
4 4 6 6 8 12 11 8 4 3 4 6 6 7 6 7 6 5 4 9 10 7 18 14 9 12 21 34 49 57 45 51 57 48 43 49 38 39 40 47 43 36 44
5 5 5 7 10 12 11 6 3 4 7 8 7 8 7 7 7 7 6 5 10 10 12 5 8 16 28 40 54 58 55 64 50 38 42 37 44 39 43 46 38 35 41
7 6 7 10 11 12 11 6 4 6 8 8 8 7 6 7 6 8 9 7 6 10 9 8 8 16 30 43 59 60 75 64 52 37 40 50 37 42 49 45 39 38 35
5 5 5 6 12 14 12 5 6 7 8 8 7 7 9 11 13 10 10 9 9 8 9 13 10 34 30 52 64 83 76 57 42 34 33 35 41 47 50 46 42 48 48
4 4 4 4 12 16 14 7 5 6 7 8 10 13 17 20 19 19 16 12 12 33 23 13 19 39 37 62 74 91 78 51 38 38 38 36 43 49 51 50 43 59 40
4 4 6 5 8 17 16 10 5 7 8 10 15 18 25 27 24 22 24 18 16 17 20 19 37 43 65 69 77 87 87 48 40 36 33 34 42 50 54 51 51 53 41
4 4 7 6 7 15 17 10 5 6 7 18 22 37 57 54 49 52 37 31 21 32 22 24 48 53 77 73 86 74 77 66 44 33 45 33 41 51 58 55 59 51 42
5 5 8 8 13 17 18 9 5 6 11 43 58 75 90 75 76 79 66 78 74 67 66 39 53 79 60 63 85 85 71 73 76 38 36 38 49 59 63 63 68 54 43
6 8 13 14 27 24 20 9 4 5 12 24 36 73 95 96 96 96 96 95 93 85 67 30 39 46 64 49 92 86 53 53 33 17 28 39 54 65 74 78 68 58 47
10 24 20 24 28 26 20 6 4 6 7 15 32 65 50 33 91 97 96 97 96 82 46 43 16 33 48 46 84 93 59 78 74 19 35 53 49 67 78 86 65 55 50
18 33 25 28 33 28 13 7 5 5 5 14 18 28 22 40 74 96 94 96 100 96 78 53 21 21 46 78 96 92 94 95 85 44 57 34 56 74 85 90 67 62 56
27 32 28 33 36 29 9 6 5 6 13 23 37 27 21 33 42 59 86 86 93 94 96 96 85 46 19 56 88 91 97 84 63 36 37 43 63 81 89 92 79 75 67
24 41 28 45 46 32 10 7 6 9 17 33 35 11 17 23 41 42 48 79 77 100 96 96 88 86 48 43 65 83 83 73 53 51 63 68 85 88 96 92 88 83 73
38 37 36 58 53 28 12 8 8 17 17 20 12 9 13 26 32 40 60 78 96 97 94 96 91 83 69 44 58 89 66 69 82 89 81 77 84 91 91 95 86 78 73
39 37 36 60 49 41 13 8 14 22 17 14 12 10 13 30 37 51 61 80 96 97 97 97 91 96 78 49 56 62 69 75 80 88 49 68 75 94 92 96 84 74 69
46 54 40 48 51 44 14 8 15 20 19 16 12 12 32 38 36 43 69 93 97 96 98 97 97 89 52 30 43 56 61 79 72 90 81 65 80 93 96 93 87 78 72
33 42 74 71 61 35 17 10 13 17 19 15 13 12 35 32 34 46 74 93 96 96 97 97 91 72 65 46 25 39 79 86 83 88 78 86 95 96 92 92 79 79 77
37 59 79 72 61 22 18 10 11 16 17 14 12 10 13 18 33 67 77 90 96 97 97 97 92 79 78 71 73 70 83 97 85 81 88 97 99 88 91 88 82 82 82
54 87 76 78 44 27 17 12 11 14 16 15 12 10 14 24 59 92 90 99 96 97 97 97 95 91 88 73 76 84 90 81 84 86 87 91 94 86 84 84 85 86 80
72 90 81 76 42 26 16 12 14 18 15 11 9 11 17 30 75 97 97 93 94 96 95 97 99 96 96 82 68 77 89 86 91 92 84 94 97 92 84 83 88 90 87
89 79 91 70 48 30 14 14 15 14 9 8 16 29 40 76 98 97 97 96 90 95 96 97 97 98 95 73 66 85 90 91 89 86 86 90 98 96 88 87 91 90 82
90 80 91 84 44 26 13 17 15 8 7 25 69 82 88 95 96 93 97 98 100 97 96 95 96 97 87 57 71 74 83 94 93 98 95 95 96 92 95 87 91 87 85
75 81 92 76 41 18 17 19 11 7 10 19 66 96 97 97 83 89 97 97 98 97 96 96 97 88 79 92 79 91 90 93 95 94 96 94 92 90 97 95 85 89 90
69 92 84 64 37 20 21 17 10 8 8 19 72 78 97 96 91 91 97 95 97 96 95 97 89 82 94 89 90 92 100 94 99 93 94 93 96 98 99 96 95 93 91
82 95 91 59 28 20 23 18 10 14 7 8 15 59 90 96 96 97 96 97 96 96 96 96 80 90 97 95 91 88 88 91 87 90 93 93 94 96 97 97 97 94 94
90 92 80 60 24 20 23 19 13 17 8 8 7 14 76 96 97 97 97 96 97 96 97 84 82 84 91 89 91 97 95 93 93 92 92 91 96 94 92 94 96 95 92

GFSSE_500_rhum_084.txt.gz
RH
4 2 2 2 2 2 2 2 3 6 7 8 8 4 3 3 3 4 5 5 5 5 4 8 11 9 16 30 33 26 37 48 54 55 44 45 45 41 41 47 48 62 46
4 2 2 2 2 2 2 2 3 5 6 8 8 4 3 4 5 4 4 5 5 5 6 6 12 11 20 26 24 17 23 35 35 33 36 50 45 51 50 55 59 61 50
3 2 3 3 3 2 2 3 3 4 6 7 8 6 4 5 6 11 8 6 5 6 10 12 8 13 20 30 21 18 21 24 25 30 40 50 49 60 58 44 58 47 51
3 3 4 4 4 4 3 3 3 3 5 8 10 8 7 5 6 20 18 26 30 12 19 21 18 11 20 20 18 21 23 22 23 33 51 60 56 56 56 40 47 52 53
4 4 4 4 4 4 3 3 3 4 4 5 10 11 9 8 6 16 25 33 42 34 21 21 26 32 14 15 19 22 21 27 31 38 56 59 61 66 47 45 52 59 62
4 4 5 5 5 4 4 3 3 2 3 4 5 9 11 7 9 16 26 41 64 54 43 34 32 47 31 20 32 26 29 36 39 45 57 62 58 62 55 58 64 59 53
5 6 6 6 7 6 4 4 3 3 3 3 5 8 10 10 8 16 35 42 63 66 52 43 39 56 50 20 30 32 34 40 44 54 60 63 63 64 49 62 53 55 54
6 6 6 7 6 5 4 4 4 3 3 3 4 8 12 14 24 66 98 96 96 96 97 92 84 67 58 36 42 41 45 41 50 54 60 69 69 64 57 51 53 57 60
6 7 7 6 5 5 5 4 4 4 3 3 6 13 19 36 54 49 54 90 98 96 96 96 95 91 58 39 44 53 49 51 58 65 65 59 65 66 43 45 55 61 62
7 7 7 6 6 6 5 5 4 4 3 8 12 18 10 6 11 12 59 84 96 96 96 95 95 94 72 41 55 84 71 65 69 66 70 50 50 52 36 46 59 66 69
7 7 7 6 6 6 6 6 5 5 7 16 22 16 8 6 5 13 36 26 47 95 96 96 96 91 83 54 59 54 49 52 66 68 68 53 46 41 33 47 64 71 74
7 7 8 7 7 8 7 8 8 10 22 30 22 9 7 14 14 19 37 66 72 96 96 96 95 67 74 54 73 69 56 54 66 58 63 68 56 36 33 42 59 65 68
7 8 8 8 8 9 8 13 16 27 36 34 16 11 11 17 33 50 50 68 41 86 96 97 96 94 75 79 83 83 60 59 62 65 36 58 37 24 31 50 59 60 65
8 8 8 8 10 10 11 15 17 38 42 41 22 16 17 32 70 59 28 17 44 52 76 95 94 95 82 93 82 71 62 50 53 72 49 63 67 48 44 50 51 64 75
9 9 8 9 11 12 16 20 20 34 44 47 28 27 15 27 43 49 21 12 18 33 48 78 80 86 95 94 96 85 75 59 46 92 79 74 69 58 50 43 59 75 96
8 10 10 10 12 22 19 24 32 30 40 49 27 19 20 30 34 51 31 17 24 33 47 53 83 98 95 97 97 84 86 66 42 90 85 82 57 55 46 45 61 77 90
9 13 10 12 15 23 23 31 67 47 52 44 24 16 16 18 29 24 36 29 33 29 46 63 97 97 96 97 96 86 83 67 44 56 63 69 61 59 57 72 79 71 80
11 14 10 15 24 28 27 54 64 62 62 38 22 19 11 16 29 32 44 34 26 23 37 68 94 96 96 97 89 81 71 75 36 34 68 43 43 57 73 86 75 71 92
14 13 10 21 32 34 33 67 62 67 52 30 23 16 10 15 22 20 25 16 12 18 38 76 96 96 97 96 91 74 61 57 38 23 58 47 48 73 88 94 77 79 86
17 14 14 26 38 38 38 79 76 76 41 25 13 11 12 13 16 13 15 10 10 25 60 80 97 97 97 97 95 73 46 25 24 35 44 56 72 89 94 81 77 81 80
25 15 26 31 51 38 53 90 77 71 33 20 11 16 17 14 11 9 10 11 27 41 72 85 96 96 97 96 92 75 66 36 30 38 48 54 70 93 90 81 81 80 82
21 30 35 37 41 40 81 86 79 55 25 13 16 15 10 9 13 22 42 35 29 51 86 90 96 95 96 90 90 96 83 84 86 91 86 83 92 94 91 84 81 79 78
30 33 37 41 38 48 92 81 84 35 17 17 14 8 9 13 32 43 64 75 61 61 97 98 98 95 97 94 91 96 95 96 96 90 88 95 97 92 88 87 91 88 94
34 35 32 36 43 60 90 80 81 28 21 16 8 8 10 12 37 70 96 88 89 80 88 96 96 95 97 96 96 96 97 96 93 80 88 91 93 91 85 81 82 83 95
37 40 41 40 44 83 84 87 76 29 23 11 11 7 7 11 19 66 88 100 86 84 97 96 95 96 97 97 96 97 96 94 84 79 75 76 85 92 90 89 89 85 91
37 44 49 44 56 87 78 94 65 31 19 13 13 8 7 8 29 90 91 91 88 83 96 96 97 96 95 96 96 97 96 93 88 80 80 82 86 88 84 86 91 95 91

GFSSE_500_rhum_087.txt.gz
RH
6 5 4 2 2 2 2 2 2 2 2 3 5 6 7 6 4 2 3 4 4 4 6 5 5 6 10 11 18 38 45 53 64 64 59 67 72 41 41 41 50 50 56
5 5 4 2 2 3 2 2 2 2 2 2 4 7 7 7 5 4 4 4 4 3 3 4 4 5 16 13 13 34 43 43 42 45 48 54 50 46 43 44 54 61 54
6 6 3 3 3 3 3 3 3 3 2 3 3 5 9 8 7 6 4 13 17 14 19 11 5 8 8 17 16 19 31 34 34 36 32 36 40 47 51 51 55 58 50
5 4 3 3 4 4 4 3 3 3 2 3 3 4 5 7 10 11 11 6 11 19 28 29 17 14 12 10 15 24 26 20 22 26 31 34 47 51 55 61 52 57 54
6 5 4 4 4 4 4 4 4 3 2 2 2 2 4 6 12 22 21 10 14 20 42 50 33 22 20 18 15 28 26 19 20 31 38 43 52 57 64 62 55 54 56
7 5 5 4 5 5 5 5 4 4 3 2 2 2 2 4 7 11 22 24 19 22 37 64 65 39 24 25 21 17 15 16 20 26 45 46 56 68 72 57 52 56 60
8 6 6 5 6 6 7 6 5 4 3 3 3 3 3 3 6 11 15 33 39 62 92 91 85 51 31 30 39 14 15 18 27 32 46 54 62 68 68 59 59 62 56
7 6 6 6 6 7 7 5 5 4 4 4 3 2 2 2 7 16 27 55 75 97 96 96 94 85 40 41 52 19 18 27 59 52 56 65 70 76 67 50 63 55 59
7 6 6 6 7 7 6 6 6 5 5 4 3 3 3 3 9 15 21 54 47 80 91 96 96 94 85 63 53 27 21 36 59 68 62 63 68 70 72 60 53 53 60
10 7 6 6 7 7 6 6 6 6 5 4 4 3 3 6 13 15 9 11 52 68 87 96 96 96 91 86 57 45 40 43 50 55 53 61 71 71 72 64 45 51 62
14 8 7 6 7 7 7 7 7 6 6 5 4 4 5 15 20 10 7 39 43 58 51 83 96 96 96 100 94 69 40 49 50 57 59 65 66 61 62 51 40 53 71
12 9 8 7 8 8 7 7 7 7 7 6 6 9 13 24 15 7 13 33 32 43 59 75 96 96 97 96 91 69 60 53 41 67 68 75 68 41 45 43 36 56 79
10 11 9 8 8 8 8 8 8 8 9 7 11 18 22 24 13 11 23 38 56 81 66 90 96 97 96 80 79 59 53 72 85 86 75 72 73 44 32 31 31 49 62
6 8 11 8 8 8 8 9 9 9 13 11 14 23 35 23 15 23 42 55 38 23 30 61 96 96 91 75 74 67 50 60 89 81 82 72 57 69 57 22 32 51 60
5 6 9 9 9 9 8 10 10 11 16 20 18 24 43 24 24 18 46 61 26 16 19 31 61 96 96 100 76 72 61 70 95 68 89 78 57 51 53 48 44 48 52
8 6 8 10 10 9 9 11 10 16 19 22 28 25 41 22 18 15 34 54 36 18 18 27 33 56 96 98 96 81 81 75 89 79 78 76 60 67 76 63 47 49 44
8 11 13 19 14 11 11 12 13 22 22 27 32 32 41 23 16 17 28 27 37 30 26 34 44 46 54 93 95 92 70 72 92 95 81 70 91 94 83 65 54 48 58
7 8 19 13 9 13 13 17 36 26 29 44 45 39 39 22 14 10 17 31 39 38 37 26 28 47 85 97 95 97 72 92 94 93 72 58 88 82 71 61 59 69 90
8 7 6 7 11 16 23 30 57 50 36 49 54 47 28 18 10 9 15 22 32 33 46 24 20 42 76 97 99 93 82 94 91 100 71 42 54 59 60 54 61 75 92
9 8 7 10 12 35 43 57 49 67 80 75 66 38 19 12 10 9 13 16 20 22 12 23 24 51 84 97 96 92 96 70 69 78 60 24 26 44 63 76 85 95 92
9 8 9 12 15 34 44 52 58 78 86 79 56 25 16 16 15 14 15 13 10 9 9 13 32 67 96 97 93 96 94 81 37 45 48 30 36 50 68 83 96 97 85
16 13 16 22 27 34 45 68 76 67 80 74 33 20 18 17 14 10 11 13 29 30 23 26 54 81 97 96 97 98 95 81 55 18 42 49 52 58 57 72 98 98 85
14 14 25 20 44 42 54 62 51 67 75 63 24 22 16 12 8 14 18 25 30 29 49 19 53 87 97 96 95 95 96 84 77 50 37 49 66 82 97 97 100 97 89
12 33 11 39 43 45 65 45 59 84 79 50 27 16 12 8 10 15 21 59 62 77 75 51 49 87 90 96 96 95 96 95 86 87 84 87 96 90 98 99 96 95 94
50 20 15 46 40 47 56 44 74 82 84 42 24 14 10 8 7 9 14 35 65 92 93 81 76 98 86 97 96 96 96 96 96 96 98 96 86 95 97 98 95 92 90
36 10 35 35 41 55 55 55 99 91 86 57 19 13 13 8 8 11 23 58 93 82 88 94 94 91 96 96 97 97 96 97 97 96 96 93 80 95 94 97 99 99 100

GFSSE_500_rhum_090.txt.gz
RH
8 7 6 6 4 2 2 2 2 2 2 2 2 2 2 4 5 6 5 4 4 5 9 7 4 8 6 7 10 14 14 23 38 52 61 67 68 70 45 47 44 48 48
8 8 6 6 4 2 2 3 3 3 3 3 2 2 2 3 4 5 6 6 6 7 8 9 9 6 4 4 11 12 14 19 36 51 61 69 66 65 53 41 43 48 51
10 9 7 7 6 3 3 3 3 3 3 3 3 2 2 2 3 3 5 10 10 10 6 12 17 22 17 9 7 12 19 23 40 45 46 56 57 54 44 44 46 50 61
12 10 8 7 5 3 4 4 4 4 4 3 2 2 2 2 2 4 6 13 20 22 13 11 15 23 32 21 12 10 17 24 37 42 42 42 42 42 48 52 54 58 58
13 11 9 6 6 4 4 4 4 4 4 4 3 2 2 2 2 3 4 11 12 16 26 23 22 26 46 33 18 14 13 21 33 34 30 37 42 42 51 61 64 62 61
16 14 9 7 6 5 4 5 5 5 5 4 4 3 2 2 3 3 4 16 15 18 30 39 43 59 54 53 27 19 19 25 36 32 29 36 40 47 56 66 67 62 58
20 15 12 7 6 5 5 5 6 7 6 5 4 4 3 3 4 5 4 12 22 39 64 87 94 96 93 80 69 25 25 27 30 22 40 38 47 48 65 74 64 58 61
29 22 13 8 7 6 6 6 7 7 5 5 5 4 4 3 3 3 4 14 22 30 63 87 90 96 96 92 94 41 33 23 18 25 37 42 48 64 70 74 70 61 62
32 28 22 11 7 6 6 7 8 7 5 6 6 5 4 4 3 4 4 11 15 14 44 57 69 99 97 95 94 47 51 27 25 31 40 54 58 66 74 80 57 64 56
30 29 26 20 10 7 6 6 7 6 6 7 7 6 5 4 4 4 8 14 16 18 30 52 84 98 96 95 95 73 57 29 35 30 41 52 64 66 75 86 64 55 54
22 22 24 23 14 9 7 7 7 6 6 7 7 6 5 5 5 6 15 18 25 33 57 54 79 99 97 96 97 82 67 52 66 45 50 60 66 68 73 84 82 53 49
23 25 20 18 17 10 7 7 7 7 7 8 8 6 6 6 6 11 22 28 37 47 41 45 38 76 97 96 97 95 88 84 64 51 48 72 73 71 74 78 75 37 48
28 30 24 16 13 12 9 7 8 8 8 8 8 7 7 7 9 17 25 17 12 33 40 60 70 74 96 96 97 98 92 89 65 49 60 72 74 82 70 47 41 30 44
34 33 31 16 14 13 10 8 8 8 9 9 8 8 9 9 12 25 28 16 23 45 55 37 44 65 97 96 97 90 89 85 61 63 71 80 76 76 74 34 21 22 36
43 38 29 12 16 15 13 9 8 9 9 9 9 10 11 12 13 32 27 20 48 75 44 20 52 64 95 96 97 99 78 69 62 80 88 84 84 64 65 64 56 29 31
52 39 16 10 13 16 15 11 9 10 10 10 10 12 14 14 15 36 24 18 31 58 40 22 23 37 85 97 97 99 84 77 68 64 88 81 69 86 69 44 42 40 53
51 45 18 9 13 16 18 11 10 10 11 11 14 15 17 16 26 38 23 16 31 40 52 33 38 36 43 97 96 97 88 77 84 82 98 96 86 81 61 53 72 68 57
54 38 16 9 10 27 26 30 29 22 12 14 17 18 19 19 30 37 23 14 23 33 29 38 35 31 31 75 92 98 96 81 94 97 99 99 99 88 83 84 91 80 56
68 23 14 8 8 12 41 28 22 15 14 20 23 24 23 22 39 27 19 11 12 34 31 47 38 34 40 56 62 82 94 93 100 98 95 100 97 84 75 91 94 72 61
38 52 10 8 7 11 45 43 36 25 21 39 36 30 27 30 37 17 11 10 18 23 21 29 46 37 23 50 61 96 96 95 100 98 97 99 85 67 51 75 70 60 60
46 21 9 8 9 14 58 50 91 70 64 54 35 34 41 42 26 12 14 14 16 15 25 51 49 13 18 36 78 98 96 96 97 98 98 90 75 49 36 32 42 58 87
34 12 12 14 11 28 51 42 43 60 64 48 41 57 53 40 18 17 17 16 14 14 14 18 33 12 14 42 78 97 95 95 90 99 97 88 55 39 40 40 62 76 88
38 42 34 32 11 22 28 55 42 57 72 50 71 73 61 27 17 15 11 9 10 15 35 76 44 26 21 38 74 96 93 90 97 99 97 83 35 39 56 64 66 69 70
37 35 32 18 20 25 29 56 41 51 77 68 92 84 52 22 16 10 8 14 14 27 65 82 29 38 22 45 78 97 96 97 97 98 94 52 30 44 56 60 62 68 86
46 36 23 17 17 32 40 57 52 76 69 91 98 95 32 19 12 10 8 9 12 13 34 53 56 46 32 43 78 97 97 97 95 86 88 75 45 43 57 86 94 95 100
41 18 10 23 26 40 58 54 61 68 71 95 100 79 29 14 15 10 8 11 24 40 44 56 69 74 39 75 92 97 97 97 97 97 95 96 96 94 96 95 100 100 97

GFSSE_500_rhum_093.txt.gz
RH
9 10 10 9 8 10 5 3 2 2 2 3 3 3 2 2 2 2 2 2 4 11 15 8 5 7 4 3 5 6 14 13 15 36 50 57 68 75 76 58 42 41 52
9 10 11 10 9 9 5 4 2 3 3 3 3 3 3 2 2 2 2 2 3 8 14 12 8 8 13 15 13 8 6 15 17 37 46 60 71 79 77 56 47 47 49
11 10 12 11 10 9 11 6 3 3 3 4 3 3 3 2 2 2 2 2 3 10 8 13 19 18 10 15 23 16 9 15 27 30 52 63 82 76 76 70 40 44 49
11 12 12 12 11 10 10 8 4 4 4 4 4 4 4 3 2 2 2 3 9 8 9 14 19 21 27 27 34 32 18 15 25 38 56 62 74 73 62 54 45 53 51
12 13 14 14 14 11 8 9 4 4 4 4 4 5 4 4 3 2 3 3 6 6 12 21 30 42 51 45 46 44 21 17 34 43 58 58 61 58 54 48 56 60 58
17 19 19 18 16 13 8 7 6 5 5 5 6 6 5 4 4 3 3 12 11 8 18 40 47 65 86 98 96 78 28 22 28 32 51 52 48 57 54 53 57 68 64
18 24 25 24 20 16 13 7 6 5 6 6 7 6 5 4 4 4 4 4 8 25 36 36 37 49 80 95 99 96 87 79 23 30 46 51 44 48 52 59 64 72 64
26 28 30 31 30 21 13 9 7 6 6 7 8 6 6 5 6 6 4 3 7 6 8 8 12 27 62 79 91 96 96 58 30 38 44 58 44 48 56 59 78 72 57
27 28 34 34 32 29 23 10 8 7 6 7 8 7 6 7 6 6 4 4 4 5 9 10 13 18 43 81 99 97 95 53 34 35 39 46 33 39 60 76 87 81 64
28 29 34 35 33 30 26 17 9 8 7 7 8 7 6 7 7 6 5 4 4 7 10 20 24 39 59 75 99 97 96 59 44 45 34 33 34 52 72 80 87 86 64
28 29 31 28 26 27 28 21 14 9 8 8 8 6 7 7 7 6 5 5 6 13 16 30 32 50 62 86 97 96 97 79 60 48 28 39 58 70 80 86 91 89 61
34 32 31 29 24 23 23 22 19 11 9 8 8 7 8 8 8 7 6 6 9 16 27 44 59 64 48 71 90 96 97 97 78 56 82 42 58 67 73 80 86 97 79
41 34 41 38 31 26 21 19 16 14 11 9 9 8 8 8 9 8 6 6 11 23 26 25 27 48 49 73 84 96 96 95 84 63 78 56 72 78 74 76 89 94 63
55 42 47 50 46 39 22 19 16 15 12 11 11 9 8 10 9 8 7 8 16 25 19 19 25 49 59 68 77 96 96 98 84 80 67 69 79 87 84 88 62 54 40
48 60 65 68 62 41 26 21 16 16 14 13 13 11 10 10 9 8 9 10 23 27 21 24 45 36 29 66 90 97 97 100 90 79 67 62 56 80 80 82 69 26 20
49 66 75 72 71 42 21 17 14 14 17 15 14 12 11 10 9 10 11 12 28 27 18 40 65 26 32 78 97 97 97 100 94 76 68 67 71 63 77 64 65 57 48
55 57 62 78 74 62 20 23 20 17 17 16 16 13 14 11 10 12 13 13 32 29 16 19 56 34 32 58 91 97 97 99 85 88 74 77 83 76 85 71 52 32 25
86 77 85 85 75 57 27 19 17 20 18 16 18 16 19 16 13 16 15 19 34 27 16 17 41 46 37 40 51 97 97 97 95 92 85 76 74 85 77 88 65 32 58
100 89 78 77 71 72 32 27 25 27 26 18 22 22 32 28 18 20 16 32 31 23 15 17 28 29 34 38 36 97 97 95 96 100 97 84 83 95 94 93 72 68 86
94 100 89 89 69 89 55 39 23 40 46 36 24 29 42 46 32 22 19 37 24 17 12 12 25 31 46 42 42 84 85 96 97 98 99 93 94 96 96 99 94 96 91
74 73 97 98 35 42 60 24 24 40 53 62 30 52 58 59 39 22 38 32 16 10 9 11 23 23 36 53 67 66 87 64 74 97 97 96 98 98 96 97 94 90 77
82 41 67 80 38 40 73 12 32 51 86 99 94 78 69 56 34 24 42 20 13 14 12 15 18 32 41 54 43 62 64 90 92 97 97 98 98 99 97 87 75 87 80
81 58 64 79 59 16 25 16 34 71 92 97 99 83 65 54 37 36 40 19 17 17 15 16 20 26 40 60 65 25 64 90 95 97 96 98 97 99 97 87 64 69 81
84 84 65 58 43 20 13 24 56 100 98 98 97 99 98 49 37 54 30 18 14 9 13 15 25 31 47 44 20 30 59 87 98 96 96 97 96 99 98 78 50 44 67
78 55 32 47 37 34 24 35 87 88 100 100 99 100 59 56 50 58 21 14 8 10 12 20 29 52 78 72 43 35 59 87 96 97 97 97 98 97 97 43 43 44 60
70 65 26 29 38 55 40 57 63 81 100 99 97 88 76 68 74 37 14 11 8 8 12 26 36 38 59 57 42 30 63 81 97 96 97 96 98 94 67 64 47 52 73

GFSSE_500_rhum_096.txt.gz
RH
6 5 5 5 6 8 9 9 8 5 4 3 3 3 3 3 3 2 2 2 2 5 7 8 10 12 12 9 8 13 10 6 11 16 24 50 65 70 80 89 77 67 48
6 5 6 7 7 8 9 9 8 6 4 3 3 4 3 4 4 3 2 2 2 2 9 8 7 10 14 16 18 18 17 12 8 21 46 65 62 79 86 83 64 44 59
6 8 9 8 8 9 10 10 9 8 6 3 3 4 4 4 4 4 3 2 2 2 9 6 9 15 27 32 30 24 25 23 10 22 40 76 66 85 90 90 84 46 51
7 7 8 9 11 12 14 13 9 8 5 3 4 4 4 4 4 4 4 3 2 4 8 7 9 24 37 45 53 42 41 37 19 17 36 51 65 83 85 87 76 54 46
8 8 9 12 15 17 16 16 14 8 6 5 4 4 4 5 5 5 4 4 6 4 12 8 19 34 44 59 78 90 85 84 33 22 31 53 74 78 79 74 66 55 57
8 9 11 16 20 21 21 20 17 13 7 8 5 4 5 6 6 5 4 5 7 5 4 16 33 36 33 33 64 73 96 98 90 31 32 53 63 67 67 72 59 52 69
14 14 16 21 27 29 29 30 26 17 10 8 6 5 5 6 7 6 6 8 6 9 7 5 7 10 7 13 45 76 78 92 96 94 34 44 58 65 66 66 58 60 77
24 24 26 28 30 32 33 34 33 27 13 8 7 6 6 6 7 6 7 11 7 7 5 4 3 4 13 16 31 58 70 84 97 87 26 42 54 63 68 62 61 68 80
32 32 33 33 33 35 39 38 35 31 23 10 8 7 7 7 7 7 7 9 8 7 6 4 3 6 21 45 83 77 80 97 97 52 30 52 79 84 60 66 60 85 82
35 32 32 35 34 38 40 38 37 33 26 15 9 8 8 8 8 7 7 8 7 7 7 4 5 21 30 29 99 94 68 96 96 84 52 57 93 65 56 71 76 94 93
37 35 34 36 37 39 40 36 34 30 31 21 13 10 8 8 8 7 7 8 8 8 7 5 11 33 50 47 63 64 76 97 97 86 63 55 93 56 70 79 84 94 92
43 44 42 42 43 44 43 37 30 28 27 25 20 14 11 9 8 8 8 8 9 9 8 9 8 44 40 49 53 46 63 94 97 88 69 65 55 54 75 78 94 97 98
56 62 68 69 72 59 46 50 44 35 27 22 19 19 14 10 9 8 8 8 9 9 8 5 12 24 17 24 30 38 45 96 97 98 72 98 71 58 70 76 88 96 99
56 56 51 49 56 59 64 57 61 46 38 23 21 18 15 13 10 8 8 10 9 9 8 6 13 19 15 18 35 53 68 94 97 99 82 86 86 75 77 70 78 80 97
40 59 44 42 38 41 48 66 82 55 34 31 22 21 17 16 11 9 10 10 9 10 8 6 20 20 17 24 32 38 63 95 97 98 89 95 67 96 84 82 77 82 65
28 32 34 27 41 50 50 66 82 71 38 30 24 19 21 18 13 10 10 10 10 10 9 10 24 17 34 47 25 37 86 96 97 95 79 94 83 75 97 92 80 83 64
22 22 27 47 58 62 70 73 93 80 46 31 23 20 22 20 15 12 10 10 11 11 10 12 28 16 35 57 26 29 94 97 97 96 92 79 72 66 75 91 83 75 72
26 29 32 37 53 67 65 81 92 92 76 60 50 34 23 22 20 15 11 12 12 14 11 19 30 17 15 53 38 43 91 97 97 97 97 98 75 70 76 74 76 68 52
29 54 64 63 43 67 87 89 85 96 93 63 69 47 27 24 21 20 16 17 17 21 11 22 27 18 16 39 42 34 76 97 97 97 98 92 95 93 81 78 75 75 76
13 46 73 100 75 70 80 89 94 99 96 82 81 72 28 25 29 41 37 26 32 18 15 24 23 18 12 27 31 30 45 91 97 97 96 91 100 89 80 90 93 82 75
19 46 66 73 79 80 85 86 86 98 97 81 66 70 31 32 58 52 60 43 32 17 22 30 19 12 10 20 26 36 29 49 97 97 97 96 86 85 89 96 98 95 88
38 46 67 68 72 74 75 100 97 98 89 87 74 61 76 58 65 76 64 46 26 20 31 20 11 9 9 23 25 36 38 34 80 86 96 97 94 90 100 95 98 93 86
44 58 57 66 68 78 71 63 86 61 70 74 71 74 99 93 91 87 72 40 24 25 33 16 16 16 17 17 33 39 52 49 62 69 77 85 97 94 97 94 96 96 81
43 46 57 65 82 82 76 58 85 54 73 63 60 81 98 98 100 78 58 37 27 39 24 17 17 22 30 29 47 49 42 44 47 52 91 95 95 96 96 96 97 98 77
48 58 69 83 94 76 42 84 92 49 59 34 91 78 95 99 79 91 57 30 40 36 17 13 10 23 31 42 46 41 54 53 19 51 80 96 97 97 97 98 98 99 90
56 73 74 85 98 94 84 88 81 39 25 46 74 84 98 85 88 82 46 35 47 22 13 9 11 30 33 45 55 57 75 55 38 42 84 97 97 97 97 97 100 100 88

GFSSE_500_rhum_099.txt.gz
RH
7 6 6 5 6 5 5 7 8 7 7 6 5 3 3 4 4 4 3 4 3 2 2 5 7 6 11 22 26 17 17 18 14 9 13 24 44 58 88 94 95 84 73
8 7 6 7 7 6 6 7 8 8 8 8 7 3 3 4 4 4 4 5 4 3 2 4 6 6 11 32 33 35 32 22 19 16 18 19 35 74 70 82 89 89 68
6 6 7 7 7 8 7 9 9 10 10 10 7 4 3 4 4 4 5 6 5 4 3 4 10 8 17 28 38 46 50 37 34 26 41 19 55 80 67 87 96 91 50
7 7 8 8 8 9 11 10 11 12 13 12 9 5 3 4 4 5 6 6 5 4 8 7 5 9 26 32 37 47 64 75 68 51 33 22 50 88 70 96 94 94 58
7 7 7 8 9 11 15 16 17 17 16 15 10 7 4 4 4 5 6 6 5 8 6 6 5 8 24 31 38 29 53 88 92 91 82 22 50 56 76 100 92 84 62
11 11 10 11 11 13 17 22 23 24 22 20 16 9 7 4 4 5 6 6 6 7 9 10 14 5 4 4 9 12 32 52 70 96 96 34 42 74 82 85 80 77 58
19 17 16 17 17 19 22 24 27 30 29 27 21 12 8 6 5 5 6 9 12 12 19 14 8 5 3 3 8 14 18 43 68 89 99 90 62 50 70 74 79 71 56
30 32 27 25 26 27 28 30 31 33 34 33 29 25 10 7 6 5 6 8 16 14 13 11 8 7 3 4 16 31 50 69 67 96 97 90 52 54 69 73 76 66 62
36 36 37 37 35 34 34 33 34 33 37 37 33 29 23 8 8 6 6 8 14 14 15 11 9 11 5 10 26 32 73 89 84 89 96 76 38 49 68 79 70 63 68
41 42 41 41 40 40 38 35 35 38 38 36 35 32 28 15 8 7 7 7 8 14 16 20 10 14 19 12 38 40 72 98 91 93 95 45 50 93 88 81 65 61 77
41 44 44 44 41 41 41 40 41 42 39 36 30 28 28 23 13 9 8 7 8 11 12 18 20 15 18 22 41 54 44 84 69 93 97 58 50 92 95 60 60 66 84
45 48 50 52 51 47 47 57 64 55 48 42 35 29 26 25 22 15 11 8 7 8 8 17 20 11 30 28 40 28 45 48 49 79 96 82 62 96 85 49 63 78 97
36 44 55 67 57 58 65 64 66 54 58 57 47 31 26 21 20 20 15 10 8 8 12 14 14 16 24 35 18 17 18 38 47 73 95 88 85 97 69 64 66 78 90
27 37 43 52 59 61 56 61 56 51 57 67 55 44 32 24 19 17 16 12 9 8 9 12 10 16 27 28 17 15 27 42 58 79 96 94 98 94 61 63 69 75 86
34 43 54 56 64 61 73 59 54 62 61 63 63 60 41 30 22 18 16 14 10 9 10 10 11 28 13 12 16 18 31 31 44 85 97 95 97 97 69 57 58 65 78
23 34 44 48 63 76 97 62 63 68 69 61 67 68 66 35 28 19 17 16 11 10 10 10 15 20 16 15 16 36 44 27 37 83 97 96 97 95 95 68 70 68 69
21 31 41 40 44 44 49 41 54 61 66 73 76 75 66 56 29 24 22 18 13 10 11 11 12 14 19 15 15 33 55 30 22 94 97 98 98 96 92 96 94 83 79
16 13 10 13 21 24 18 30 49 74 61 72 82 86 88 73 51 24 26 21 16 11 13 12 15 18 9 17 17 17 53 41 46 95 97 98 98 93 84 96 97 93 86
9 8 6 5 5 4 11 33 36 68 74 84 80 89 87 94 68 44 30 23 17 13 15 17 22 17 10 22 19 16 40 43 56 97 97 97 100 93 80 78 94 92 77
5 4 4 4 4 6 12 14 38 47 73 96 79 96 95 96 77 59 32 25 19 14 23 27 28 15 12 22 22 16 31 36 56 97 96 97 97 91 88 65 70 76 75
5 4 3 4 5 7 14 40 77 50 97 85 80 100 94 92 82 79 40 26 24 16 33 34 30 16 13 23 19 13 23 29 51 94 97 97 98 96 95 96 87 81 86
3 3 3 7 8 14 25 51 64 79 100 93 100 99 98 87 82 91 35 37 38 27 43 32 22 15 19 24 12 11 16 27 44 92 95 97 96 95 98 95 99 88 91
3 2 3 16 25 31 27 42 57 67 75 94 94 89 94 91 84 97 48 80 79 57 45 28 20 17 26 16 9 9 15 26 46 80 69 96 97 97 96 95 95 100 97
2 4 14 24 33 31 44 50 48 68 80 74 74 90 99 100 100 97 88 98 92 74 51 29 18 26 24 13 16 17 16 29 52 48 52 63 86 97 97 96 96 98 97
4 21 41 41 40 37 42 50 70 85 78 72 70 87 74 100 100 97 90 98 99 91 38 23 26 30 16 12 16 32 24 58 54 42 51 64 49 80 96 97 96 99 96
72 57 56 55 45 45 52 73 97 100 97 90 90 65 67 96 76 83 90 97 96 59 32 33 38 20 13 11 18 33 40 64 56 52 52 38 24 55 93 97 96 98 97

GFSSE_500_rhum_102.txt.gz
RH
7 7 7 6 6 6 5 5 5 6 7 6 7 7 6 4 4 4 6 7 7 6 4 3 3 6 7 9 29 33 34 29 24 18 16 25 21 29 58 88 94 98 75
5 6 6 6 6 6 6 6 6 5 6 6 7 9 8 6 4 4 4 5 7 6 5 5 4 8 9 10 22 32 39 40 36 26 22 20 23 38 67 91 78 95 98
5 5 5 6 6 6 6 7 7 6 7 6 9 11 10 7 4 4 4 5 7 6 5 6 8 6 7 10 25 31 38 40 51 46 47 40 24 30 51 86 88 96 90
6 5 5 5 6 7 7 8 9 8 9 9 10 13 13 10 4 4 4 5 7 7 5 7 6 10 10 8 17 27 34 28 47 76 80 68 30 41 77 88 87 96 97
9 8 8 8 8 8 9 9 12 12 13 14 16 18 16 13 9 4 4 5 6 7 7 7 9 12 10 5 4 4 5 11 33 72 84 93 57 37 84 84 87 98 95
12 12 13 12 12 12 12 14 16 17 18 19 21 22 22 18 13 8 4 5 6 8 10 11 19 26 7 6 3 3 5 14 29 60 70 86 95 46 97 50 82 96 89
20 18 16 16 19 17 17 18 21 22 24 24 25 25 26 26 19 10 6 5 8 8 15 17 15 13 8 8 4 4 12 26 29 49 62 93 98 74 75 83 86 84 86
31 31 30 29 29 29 28 27 28 29 30 30 29 28 28 27 26 23 9 7 10 13 22 20 15 17 16 13 14 9 20 31 54 70 80 94 96 93 64 59 77 82 77
29 36 39 40 39 37 38 35 35 35 35 35 34 34 32 28 29 26 20 8 11 12 12 15 19 29 36 13 20 13 26 29 64 84 92 94 98 87 54 61 81 81 73
26 32 37 40 41 42 42 41 40 38 38 38 38 38 35 32 30 29 27 14 8 7 9 19 18 21 29 21 16 36 31 28 35 95 98 88 97 76 40 72 84 82 66
23 30 35 41 44 43 44 44 44 42 42 42 47 45 37 30 26 27 27 23 14 8 7 16 16 16 21 35 37 44 37 28 30 74 88 82 96 62 49 89 88 76 63
21 25 31 38 44 45 46 49 49 49 52 65 61 51 48 33 26 24 24 25 24 16 9 7 9 12 19 51 33 30 28 22 32 39 42 62 94 88 88 96 86 64 66
20 21 27 36 39 43 47 49 53 49 56 62 64 53 54 46 33 26 23 22 21 19 16 8 8 14 11 28 44 31 28 35 18 25 35 62 98 87 92 97 93 62 68
23 25 30 33 42 47 47 49 53 53 55 49 54 55 59 60 45 35 29 23 22 19 16 12 8 14 13 24 42 39 31 16 12 20 35 49 94 84 96 96 76 48 57
26 25 28 29 34 40 41 48 52 59 64 68 42 50 56 62 63 52 38 29 24 22 17 13 9 10 13 19 35 27 17 17 16 23 31 49 93 92 96 96 67 54 54
29 28 29 37 51 49 51 54 59 59 69 91 61 44 38 50 62 64 59 42 29 26 21 15 10 10 13 22 32 19 15 26 25 27 25 51 96 89 96 95 71 64 56
30 29 28 31 40 45 61 60 57 65 62 61 56 40 30 34 54 61 62 56 41 30 27 19 12 11 11 14 28 17 15 16 16 33 28 27 93 90 98 97 89 60 57
29 27 26 27 32 32 37 43 42 52 56 52 54 51 33 30 43 52 62 68 61 39 29 23 15 12 11 15 29 20 17 18 19 44 38 48 95 90 96 97 96 92 72
28 27 25 22 20 17 16 19 20 22 30 30 33 41 44 52 45 56 66 68 78 57 38 26 18 13 14 20 22 12 18 24 21 34 44 52 94 93 98 96 99 96 96
23 18 10 7 7 6 6 5 4 5 6 17 29 41 52 99 68 84 75 73 79 71 52 29 19 14 19 26 19 14 21 27 24 17 39 70 90 97 98 98 91 94 96
9 7 6 6 6 5 5 4 4 4 6 27 37 60 60 80 79 100 85 78 84 75 60 30 21 20 28 28 18 18 22 22 16 14 36 96 96 96 97 97 92 83 87
8 7 7 6 4 4 3 3 3 2 4 8 56 74 81 99 97 94 88 87 88 88 63 37 24 30 34 26 21 20 21 20 14 15 35 94 98 97 100 96 96 97 74
9 8 8 8 6 4 2 2 2 4 8 6 14 65 75 88 98 94 95 97 96 97 66 58 35 43 36 24 23 21 21 15 10 16 30 82 96 97 96 96 94 88 76
8 8 13 5 3 2 2 4 12 22 20 17 31 67 79 83 90 93 95 93 86 94 66 80 38 49 36 29 27 23 28 16 10 14 34 75 96 96 97 97 97 96 87
10 8 3 3 3 5 14 40 38 33 32 41 50 69 80 79 100 89 84 100 98 89 60 100 40 48 44 34 30 24 18 18 25 18 30 88 94 83 95 96 96 93 97
8 4 3 7 22 52 61 52 48 44 41 52 60 81 83 81 98 96 80 81 80 91 94 95 83 70 52 31 31 19 19 15 32 25 57 74 90 70 87 72 93 96 95

GFSSE_500_rhum_105.txt.gz
RH
6 6 6 6 6 5 6 5 5 5 5 5 6 6 7 9 7 4 5 6 6 8 7 6 5 4 6 7 8 17 25 37 35 35 25 19 16 21 20 58 97 90 98
5 6 6 6 6 6 6 5 5 6 5 5 6 7 7 9 10 7 4 5 5 6 7 6 6 8 7 7 7 16 29 33 36 27 40 34 28 23 24 58 74 93 94
5 5 5 6 6 5 5 5 6 6 6 6 6 7 8 10 12 10 4 4 5 6 7 6 6 7 9 11 9 10 20 26 26 19 42 62 56 41 21 38 83 77 97
8 6 6 6 6 6 6 7 7 8 8 8 8 7 7 10 14 14 8 4 4 5 7 8 7 8 11 12 8 5 4 3 5 10 36 63 79 64 26 45 89 82 97
10 10 9 9 9 9 8 8 9 10 11 9 9 10 12 17 17 16 14 10 6 6 6 10 9 11 20 17 9 7 4 3 5 14 34 72 71 74 36 96 85 86 94
14 11 11 11 11 11 11 10 10 10 12 15 14 15 19 23 22 20 18 15 9 5 7 11 15 20 17 13 10 11 6 4 10 18 26 52 73 90 87 56 99 80 90
24 22 20 16 16 15 14 15 17 17 17 19 21 23 24 25 26 25 23 20 13 19 15 15 17 17 16 16 19 12 14 8 15 27 35 53 65 85 96 79 82 63 86
18 24 28 28 27 26 26 26 27 28 26 27 28 28 27 27 26 27 26 26 22 14 17 20 18 24 20 22 32 22 16 14 17 24 39 62 74 87 96 87 97 73 73
16 16 19 24 26 29 32 33 35 35 36 34 32 32 31 28 27 26 29 30 28 20 19 20 14 12 17 18 19 30 16 34 31 27 31 64 90 88 96 96 69 73 74
18 17 18 22 28 31 33 36 38 38 38 35 35 36 37 35 30 27 26 27 28 30 27 11 11 16 21 24 17 27 36 44 36 28 28 39 86 88 95 96 66 51 78
19 18 20 20 23 29 34 37 38 38 38 38 38 44 42 42 37 32 25 23 24 28 33 32 29 12 11 13 16 25 46 45 26 31 28 45 80 70 88 97 51 64 70
22 20 23 21 24 27 32 33 38 41 43 44 46 48 51 52 42 37 29 26 22 24 25 26 27 31 14 16 18 25 33 36 34 53 51 49 44 57 74 96 85 69 71
29 26 25 23 21 24 29 34 41 42 43 47 51 53 64 63 52 40 39 28 26 24 23 21 22 18 15 9 17 14 29 46 50 37 18 29 26 48 75 97 97 91 81
33 32 29 26 24 26 26 33 42 44 48 50 56 54 54 57 59 57 55 47 33 28 27 25 21 18 21 17 14 14 28 48 41 22 27 29 18 40 71 97 96 97 94
34 33 32 30 27 29 31 36 42 51 56 60 55 55 54 56 58 55 50 44 42 36 35 30 27 23 21 22 37 37 25 42 35 28 35 26 16 33 56 100 96 96 95
39 37 36 33 30 29 35 41 43 48 49 55 57 63 57 52 64 38 43 48 46 50 49 46 35 36 21 24 30 40 32 31 27 16 29 23 16 27 54 99 94 96 95
39 36 37 36 34 33 33 39 43 55 62 55 57 56 66 78 74 54 35 32 38 39 49 56 50 33 36 29 30 25 22 22 33 22 20 29 19 26 42 98 95 95 92
36 35 35 33 33 31 30 40 50 58 58 62 58 50 56 52 54 52 33 36 35 30 39 52 50 50 37 30 24 24 22 29 30 19 17 28 28 33 43 95 97 96 96
35 35 33 32 30 30 29 29 33 37 39 45 42 35 34 42 37 39 36 40 40 50 33 44 54 60 53 38 21 16 21 32 33 20 22 19 29 40 44 66 98 97 96
38 36 33 30 27 26 26 18 13 12 11 12 12 10 12 32 26 26 55 67 51 82 35 40 43 53 57 54 23 16 16 24 18 16 24 25 19 32 46 82 97 96 98
34 32 26 18 16 13 8 7 6 6 5 5 5 4 5 11 18 16 59 80 92 91 70 51 41 42 53 61 30 16 17 25 17 18 21 34 14 24 62 87 96 97 95
33 28 20 13 10 9 8 7 7 6 5 4 4 4 3 4 7 60 79 100 100 93 74 65 58 72 69 64 38 17 21 25 20 21 19 19 13 25 74 92 96 97 97
32 24 19 12 10 10 10 10 12 15 12 7 4 4 3 7 17 94 85 99 100 94 74 70 69 71 87 68 36 19 26 26 24 21 17 16 10 25 98 97 96 97 97
26 21 18 16 15 17 19 16 7 4 4 4 3 2 3 7 37 21 37 100 92 99 84 90 86 87 89 76 34 24 30 27 27 22 20 12 9 17 83 97 96 97 97
17 14 16 16 16 21 13 5 4 4 4 7 10 16 17 27 19 26 64 97 100 89 100 89 89 95 97 78 33 32 34 32 29 26 27 15 10 31 90 96 97 97 97
19 20 20 24 18 10 4 3 4 14 43 57 58 53 33 31 27 38 69 83 99 100 94 99 95 92 92 79 43 42 42 38 23 22 28 43 20 31 76 95 96 97 97